EW2975 Weather Reports


Display with metric or nautical units.
time (UTC)temp
F
wind
direction
speed
MPH
gust
MPH
rain 1hr
in
rain 24hr
in
rain mn
in
humidity
%
barometer
mb
20260905230506 98 103 4.0 12.0 0.00 0.00 0.00 38 1009.8
20260905230405 98 107 4.0 12.0 0.00 0.00 0.00 38 1009.8
20260905230306 98 111 4.0 12.0 0.00 0.00 0.00 38 1009.8
20260905230106 98 114 5.0 12.0 0.00 0.00 0.00 37 1009.8
20260905230005 98 113 5.0 12.0 0.00 0.00 0.00 37 1009.8
20260905225906 98 113 5.0 12.0 0.00 0.00 0.00 37 1009.8
20260905225805 98 110 6.0 12.0 0.00 0.00 0.00 37 1009.9
20260905225706 98 108 5.0 12.0 0.00 0.00 0.00 37 1009.9
20260905225605 98 105 5.0 10.0 0.00 0.00 0.00 37 1009.9
20260905225405 98 98 5.0 10.0 0.00 0.00 0.00 37 1009.9
20260905225306 98 93 5.0 10.0 0.00 0.00 0.00 37 1009.8
20260905225206 98 89 5.0 10.0 0.00 0.00 0.00 37 1009.9
20260905225106 98 88 5.0 10.0 0.00 0.00 0.00 36 1009.9
20260905225005 98 85 5.0 10.0 0.00 0.00 0.00 36 1009.9
20260905224805 99 81 5.0 10.0 0.00 0.00 0.00 35 1009.8
20260905224705 99 83 5.0 10.0 0.00 0.00 0.00 35 1009.8
20260905224505 99 88 6.0 10.0 0.00 0.00 0.00 36 1009.8
20260905224405 99 91 6.0 10.0 0.00 0.00 0.00 35 1009.8
20260905224305 99 94 6.0 10.0 0.00 0.00 0.00 35 1009.8
20260905224205 99 98 6.0 12.0 0.00 0.00 0.00 35 1009.8
20260905224106 99 98 6.0 12.0 0.00 0.00 0.00 35 1009.8
20260905224006 99 101 6.0 12.0 0.00 0.00 0.00 35 1009.8
20260905223905 99 102 6.0 12.0 0.00 0.00 0.00 36 1009.8
20260905223805 99 102 6.0 12.0 0.00 0.00 0.00 36 1009.8
20260905223705 99 100 5.0 12.0 0.00 0.00 0.00 35 1009.8
20260905223605 99 99 5.0 12.0 0.00 0.00 0.00 35 1009.7
20260905223505 99 101 5.0 12.0 0.00 0.00 0.00 35 1009.7
20260905223405 99 102 5.0 12.0 0.00 0.00 0.00 35 1009.7
20260905223205 99 102 5.0 10.0 0.00 0.00 0.00 35 1009.7
20260905223106 99 104 5.0 12.0 0.00 0.00 0.00 35 1009.8
20260905223005 99 103 5.0 12.0 0.00 0.00 0.00 35 1009.8
20260905222905 99 103 4.0 12.0 0.00 0.00 0.00 35 1009.8
20260905222806 99 107 4.0 12.0 0.00 0.00 0.00 35 1009.8
20260905222705 99 114 4.0 12.0 0.00 0.00 0.00 36 1009.8
20260905222605 99 117 4.0 12.0 0.00 0.00 0.00 36 1009.8
20260905222505 99 115 4.0 12.0 0.00 0.00 0.00 36 1009.8
20260905222405 99 110 4.0 12.0 0.00 0.00 0.00 36 1009.8
20260905222306 99 104 4.0 12.0 0.00 0.00 0.00 36 1009.8
20260905222205 99 104 4.0 12.0 0.00 0.00 0.00 36 1009.8
20260905222105 98 105 4.0 11.0 0.00 0.00 0.00 37 1009.8
20260905222006 98 110 4.0 11.0 0.00 0.00 0.00 37 1009.8
20260905221906 98 115 5.0 11.0 0.00 0.00 0.00 37 1009.8
20260905221805 98 111 5.0 11.0 0.00 0.00 0.00 36 1009.7
20260905221706 99 107 5.0 11.0 0.00 0.00 0.00 36 1009.8
20260905221605 99 99 5.0 11.0 0.00 0.00 0.00 36 1009.8
20260905221505 99 94 6.0 11.0 0.00 0.00 0.00 36 1009.8
20260905221405 99 90 6.0 12.0 0.00 0.00 0.00 37 1009.8
20260905221305 99 88 6.0 12.0 0.00 0.00 0.00 37 1009.7
20260905221205 99 84 6.0 12.0 0.00 0.00 0.00 36 1009.7
20260905221005 99 77 5.0 12.0 0.00 0.00 0.00 36 1009.7
20260905220906 99 73 6.0 12.0 0.00 0.00 0.00 36 1009.7
20260905220805 98 78 6.0 12.0 0.00 0.00 0.00 37 1009.7
20260905220705 98 84 6.0 12.0 0.00 0.00 0.00 36 1009.7
20260905220605 99 89 6.0 13.0 0.00 0.00 0.00 36 1009.7
20260905220505 99 92 6.0 13.0 0.00 0.00 0.00 36 1009.8
20260905220405 99 96 5.0 13.0 0.00 0.00 0.00 36 1009.8
20260905220305 99 100 5.0 13.0 0.00 0.00 0.00 36 1009.8
20260905220205 99 99 5.0 13.0 0.00 0.00 0.00 36 1009.8
20260905220105 99 100 5.0 13.0 0.00 0.00 0.00 36 1009.8
20260905220005 100 103 5.0 13.0 0.00 0.00 0.00 36 1009.8
20260905215906 100 106 4.0 13.0 0.00 0.00 0.00 36 1009.8
20260905215605 100 107 4.0 10.0 0.00 0.00 0.00 36 1009.8
20260905215505 99 108 4.0 11.0 0.00 0.00 0.00 37 1009.8
20260905215406 99 109 4.0 11.0 0.00 0.00 0.00 37 1009.8
20260905215205 99 110 4.0 11.0 0.00 0.00 0.00 36 1009.8
20260905215105 99 102 4.0 11.0 0.00 0.00 0.00 36 1009.8
20260905214906 99 97 4.0 11.0 0.00 0.00 0.00 36 1009.8
20260905214805 99 97 4.0 11.0 0.00 0.00 0.00 36 1009.9
20260905214706 100 104 5.0 11.0 0.00 0.00 0.00 36 1009.9
20260905214606 99 117 4.0 11.0 0.00 0.00 0.00 36 1010.0
20260905214505 99 123 5.0 10.0 0.00 0.00 0.00 37 1010.0
20260905214305 99 124 5.0 11.0 0.00 0.00 0.00 36 1010.0
20260905214106 99 132 5.0 11.0 0.00 0.00 0.00 37 1010.1
20260905214005 99 139 5.0 11.0 0.00 0.00 0.00 37 1010.1
20260905213905 99 139 5.0 11.0 0.00 0.00 0.00 37 1010.1
20260905213805 99 134 5.0 12.0 0.00 0.00 0.00 37 1010.1
20260905213706 99 131 5.0 12.0 0.00 0.00 0.00 37 1010.1
20260905213605 99 129 5.0 12.0 0.00 0.00 0.00 37 1010.1
20260905213405 99 137 4.0 12.0 0.00 0.00 0.00 37 1010.1
20260905213305 99 143 5.0 12.0 0.00 0.00 0.00 37 1010.2
20260905213106 99 154 5.0 12.0 0.00 0.00 0.00 37 1010.2
20260905212906 100 166 5.0 12.0 0.00 0.00 0.00 37 1010.2
20260905212805 100 174 4.0 12.0 0.00 0.00 0.00 38 1010.2
20260905212706 99 181 4.0 10.0 0.00 0.00 0.00 38 1010.2
20260905212605 99 181 4.0 10.0 0.00 0.00 0.00 37 1010.2
20260905212506 99 178 4.0 10.0 0.00 0.00 0.00 37 1010.2
20260905212405 100 175 4.0 10.0 0.00 0.00 0.00 37 1010.3
20260905212306 99 168 4.0 9.0 0.00 0.00 0.00 37 1010.3
20260905212205 99 156 4.0 9.0 0.00 0.00 0.00 37 1010.3
20260905212105 99 148 3.0 9.0 0.00 0.00 0.00 37 1010.3
20260905212005 99 123 3.0 9.0 0.00 0.00 0.00 37 1010.3
20260905211905 99 100 3.0 7.0 0.00 0.00 0.00 37 1010.3
20260905211805 99 89 4.0 7.0 0.00 0.00 0.00 37 1010.4
20260905211705 99 82 4.0 9.0 0.00 0.00 0.00 37 1010.3
20260905211605 99 76 5.0 10.0 0.00 0.00 0.00 38 1010.4
20260905211505 99 75 5.0 10.0 0.00 0.00 0.00 38 1010.3
20260905211405 99 75 5.0 11.0 0.00 0.00 0.00 38 1010.4
20260905211305 99 79 5.0 11.0 0.00 0.00 0.00 38 1010.4
20260905211205 99 82 5.0 11.0 0.00 0.00 0.00 38 1010.4
20260905211105 99 83 5.0 11.0 0.00 0.00 0.00 38 1010.4
20260905210905 99 83 5.0 11.0 0.00 0.00 0.00 37 1010.5
20260905210805 100 84 5.0 11.0 0.00 0.00 0.00 37 1010.5
20260905210505 100 88 4.0 11.0 0.00 0.00 0.00 37 1010.5
20260905210405 100 84 4.0 9.0 0.00 0.00 0.00 37 1010.5
20260905210205 100 82 4.0 9.0 0.00 0.00 0.00 37 1010.6
20260905210105 100 88 4.0 9.0 0.00 0.00 0.00 38 1010.5
20260905210005 99 97 5.0 10.0 0.00 0.00 0.00 37 1010.6
20260905205905 99 103 5.0 10.0 0.00 0.00 0.00 37 1010.6
20260905205807 98 114 5.0 10.0 0.00 0.00 0.00 38 1010.6
20260905205705 98 124 5.0 10.0 0.00 0.00 0.00 38 1010.6
20260905205606 98 130 5.0 10.0 0.00 0.00 0.00 37 1010.6
20260905205406 99 141 4.0 10.0 0.00 0.00 0.00 38 1010.7
20260905205205 99 156 3.0 10.0 0.00 0.00 0.00 38 1010.8
20260905205105 99 159 3.0 10.0 0.00 0.00 0.00 39 1010.8
20260905205005 99 156 3.0 8.0 0.00 0.00 0.00 39 1010.7
20260905204905 99 136 3.0 8.0 0.00 0.00 0.00 38 1010.8
20260905204806 99 96 3.0 9.0 0.00 0.00 0.00 38 1010.8
20260905204605 99 76 4.0 9.0 0.00 0.00 0.00 39 1010.8
20260905204506 99 75 4.0 9.0 0.00 0.00 0.00 40 1010.9
20260905204405 98 73 4.0 9.0 0.00 0.00 0.00 40 1010.8
20260905204306 98 78 5.0 9.0 0.00 0.00 0.00 40 1010.9
20260905204205 98 84 5.0 9.0 0.00 0.00 0.00 40 1010.9
20260905204106 98 83 5.0 9.0 0.00 0.00 0.00 39 1010.9
20260905204005 98 83 5.0 9.0 0.00 0.00 0.00 39 1011.0
20260905203906 99 86 4.0 9.0 0.00 0.00 0.00 38 1011.0
20260905203805 99 91 4.0 9.0 0.00 0.00 0.00 39 1010.9
20260905203705 99 92 4.0 9.0 0.00 0.00 0.00 39 1010.9
20260905203605 99 98 3.0 9.0 0.00 0.00 0.00 39 1010.9
20260905203506 99 101 3.0 9.0 0.00 0.00 0.00 40 1010.9
20260905203405 99 101 3.0 9.0 0.00 0.00 0.00 40 1010.9
20260905203306 98 93 2.0 9.0 0.00 0.00 0.00 40 1010.9
20260905203205 98 90 2.0 5.0 0.00 0.00 0.00 40 1010.9
20260905203105 99 94 2.0 5.0 0.00 0.00 0.00 40 1011.0
20260905203005 98 103 2.0 4.0 0.00 0.00 0.00 40 1011.0
20260905202805 98 98 2.0 4.0 0.00 0.00 0.00 39 1011.0
20260905202605 98 75 3.0 6.0 0.00 0.00 0.00 40 1011.0
20260905202505 97 69 3.0 7.0 0.00 0.00 0.00 40 1011.0
20260905202406 97 71 3.0 8.0 0.00 0.00 0.00 40 1011.1
20260905202306 97 74 3.0 8.0 0.00 0.00 0.00 40 1011.1
20260905202205 97 82 4.0 8.0 0.00 0.00 0.00 40 1011.1
20260905202105 97 82 4.0 8.0 0.00 0.00 0.00 41 1011.1
20260905202006 96 79 4.0 8.0 0.00 0.00 0.00 40 1011.0
20260905201905 96 77 4.0 8.0 0.00 0.00 0.00 40 1011.1
20260905201804 96 77 4.0 8.0 0.00 0.00 0.00 40 1011.1
20260905201605 97 79 4.0 8.0 0.00 0.00 0.00 40 1011.2
20260905201505 97 82 4.0 8.0 0.00 0.00 0.00 40 1011.2
20260905201405 98 85 4.0 8.0 0.00 0.00 0.00 40 1011.2
20260905201305 98 85 4.0 8.0 0.00 0.00 0.00 40 1011.2
20260905201205 98 80 3.0 8.0 0.00 0.00 0.00 41 1011.2
20260905201105 97 78 3.0 8.0 0.00 0.00 0.00 41 1011.2
20260905201005 97 78 3.0 8.0 0.00 0.00 0.00 42 1011.2
20260905200906 96 77 3.0 8.0 0.00 0.00 0.00 42 1011.3
20260905200805 96 78 3.0 8.0 0.00 0.00 0.00 43 1011.3
20260905200705 95 83 2.0 6.0 0.00 0.00 0.00 43 1011.2
20260905200605 95 88 2.0 6.0 0.00 0.00 0.00 43 1011.2
20260905200505 94 92 2.0 6.0 0.00 0.00 0.00 43 1011.2
20260905200305 94 124 2.0 7.0 0.00 0.00 0.00 42 1011.2
20260905200205 95 132 3.0 7.0 0.00 0.00 0.00 42 1011.3
20260905200106 95 141 3.0 7.0 0.00 0.00 0.00 42 1011.3
20260905200005 95 165 2.0 7.0 0.00 0.00 0.00 41 1011.3
20260905195906 95 184 2.0 7.0 0.00 0.00 0.00 41 1011.3
20260905195705 96 192 3.0 7.0 0.00 0.00 0.00 40 1011.4
20260905195606 96 183 3.0 7.0 0.00 0.00 0.00 39 1011.4
20260905195505 97 174 3.0 7.0 0.00 0.00 0.00 39 1011.4
20260905195307 97 149 3.0 7.0 0.00 0.00 0.00 39 1011.5
20260905195005 98 128 3.0 8.0 0.00 0.00 0.00 39 1011.5
20260905194906 98 126 4.0 9.0 0.00 0.00 0.00 39 1011.5
20260905194806 98 131 4.0 9.0 0.00 0.00 0.00 37 1011.5
20260905194705 99 142 4.0 10.0 0.00 0.00 0.00 38 1011.6
20260905194605 99 151 5.0 11.0 0.00 0.00 0.00 39 1011.6
20260905194505 98 158 5.0 11.0 0.00 0.00 0.00 39 1011.6
20260905194406 98 163 5.0 11.0 0.00 0.00 0.00 39 1011.6
20260905194305 98 166 5.0 11.0 0.00 0.00 0.00 39 1011.6
20260905194205 98 172 5.0 11.0 0.00 0.00 0.00 39 1011.6
20260905194005 98 181 5.0 11.0 0.00 0.00 0.00 39 1011.7
20260905193804 98 189 5.0 12.0 0.00 0.00 0.00 39 1011.7
20260905193705 98 186 4.0 12.0 0.00 0.00 0.00 39 1011.7
20260905193605 98 183 4.0 12.0 0.00 0.00 0.00 41 1011.7
20260905193506 98 174 4.0 12.0 0.00 0.00 0.00 41 1011.7
20260905193405 97 169 4.0 12.0 0.00 0.00 0.00 41 1011.7
20260905193305 96 169 5.0 12.0 0.00 0.00 0.00 41 1011.8
20260905193205 96 169 5.0 12.0 0.00 0.00 0.00 42 1011.9
20260905193105 96 163 5.0 12.0 0.00 0.00 0.00 41 1011.9
20260905193005 96 161 5.0 12.0 0.00 0.00 0.00 41 1011.9
20260905192905 96 157 5.0 12.0 0.00 0.00 0.00 41 1012.0
20260905192805 97 154 6.0 11.0 0.00 0.00 0.00 40 1012.0
20260905192705 97 155 5.0 11.0 0.00 0.00 0.00 40 1011.9
20260905192605 97 157 5.0 11.0 0.00 0.00 0.00 40 1012.0
20260905192506 97 157 5.0 11.0 0.00 0.00 0.00 40 1012.0
20260905192306 97 148 5.0 11.0 0.00 0.00 0.00 41 1012.0
20260905192105 97 149 5.0 11.0 0.00 0.00 0.00 42 1012.0
20260905191905 97 144 4.0 11.0 0.00 0.00 0.00 41 1012.0
20260905191805 97 132 4.0 10.0 0.00 0.00 0.00 41 1012.0
20260905191705 97 122 4.0 10.0 0.00 0.00 0.00 41 1012.1
20260905191605 97 117 4.0 10.0 0.00 0.00 0.00 40 1012.1
20260905191505 97 116 5.0 12.0 0.00 0.00 0.00 40 1012.1
20260905191405 97 118 5.0 12.0 0.00 0.00 0.00 41 1012.1
20260905191305 98 123 5.0 12.0 0.00 0.00 0.00 40 1012.1
20260905191205 97 120 5.0 12.0 0.00 0.00 0.00 40 1012.2
20260905191105 98 118 5.0 12.0 0.00 0.00 0.00 40 1012.2
20260905190905 97 124 5.0 12.0 0.00 0.00 0.00 41 1012.2
20260905190804 97 129 4.0 12.0 0.00 0.00 0.00 41 1012.2
20260905190705 97 133 4.0 12.0 0.00 0.00 0.00 41 1012.2
20260905190605 97 134 4.0 12.0 0.00 0.00 0.00 42 1012.2
20260905190506 97 142 4.0 11.0 0.00 0.00 0.00 41 1012.3
20260905190405 97 154 4.0 9.0 0.00 0.00 0.00 41 1012.3
20260905190305 97 160 4.0 10.0 0.00 0.00 0.00 41 1012.3
20260905190005 97 160 4.0 10.0 0.00 0.00 0.00 42 1012.4
20260905185906 97 163 4.0 10.0 0.00 0.00 0.00 41 1012.5
20260905185805 97 167 4.0 10.0 0.00 0.00 0.00 40 1012.5
20260905185705 98 167 4.0 10.0 0.00 0.00 0.00 40 1012.5
20260905185605 98 163 3.0 10.0 0.00 0.00 0.00 40 1012.5
20260905185506 98 159 3.0 10.0 0.00 0.00 0.00 41 1012.5
20260905185405 98 159 4.0 10.0 0.00 0.00 0.00 44 1012.5
20260905185205 96 168 5.0 9.0 0.00 0.00 0.00 43 1012.5
20260905185105 96 174 5.0 10.0 0.00 0.00 0.00 43 1012.5
20260905185005 95 176 5.0 10.0 0.00 0.00 0.00 43 1012.6
20260905184905 95 178 5.0 10.0 0.00 0.00 0.00 42 1012.7
20260905184805 96 175 5.0 10.0 0.00 0.00 0.00 41 1012.6
20260905184706 97 175 5.0 10.0 0.00 0.00 0.00 40 1012.7
20260905184605 98 176 5.0 10.0 0.00 0.00 0.00 40 1012.7
20260905184505 98 171 6.0 10.0 0.00 0.00 0.00 40 1012.7
20260905184306 98 152 5.0 11.0 0.00 0.00 0.00 41 1012.7
20260905184205 97 146 5.0 11.0 0.00 0.00 0.00 41 1012.7
20260905184105 97 145 5.0 11.0 0.00 0.00 0.00 41 1012.7
20260905184005 97 149 6.0 11.0 0.00 0.00 0.00 41 1012.7
20260905183905 98 148 5.0 12.0 0.00 0.00 0.00 40 1012.7
20260905183804 97 149 6.0 12.0 0.00 0.00 0.00 41 1012.7
20260905183705 97 152 6.0 12.0 0.00 0.00 0.00 43 1012.7
20260905183604 97 155 5.0 12.0 0.00 0.00 0.00 42 1012.7
20260905183505 97 159 5.0 12.0 0.00 0.00 0.00 42 1012.8
20260905183406 97 160 5.0 12.0 0.00 0.00 0.00 42 1012.7
20260905183305 97 159 5.0 12.0 0.00 0.00 0.00 42 1012.7
20260905183205 97 154 5.0 12.0 0.00 0.00 0.00 41 1012.7
20260905183004 97 126 5.0 12.0 0.00 0.00 0.00 41 1012.8
20260905182705 96 112 4.0 10.0 0.00 0.00 0.00 43 1012.8
20260905182605 96 105 4.0 10.0 0.00 0.00 0.00 43 1012.9
20260905182505 96 104 4.0 10.0 0.00 0.00 0.00 43 1012.9
20260905182405 96 108 4.0 10.0 0.00 0.00 0.00 43 1012.9
20260905182306 96 116 4.0 10.0 0.00 0.00 0.00 43 1012.9
20260905182205 96 119 3.0 10.0 0.00 0.00 0.00 43 1012.9
20260905182105 96 122 3.0 9.0 0.00 0.00 0.00 45 1012.9
20260905182005 95 128 3.0 9.0 0.00 0.00 0.00 45 1012.9
20260905181905 95 130 2.0 9.0 0.00 0.00 0.00 46 1013.0
20260905181805 94 126 2.0 7.0 0.00 0.00 0.00 46 1013.0
20260905181705 93 116 3.0 7.0 0.00 0.00 0.00 46 1013.0
20260905181605 93 103 3.0 8.0 0.00 0.00 0.00 46 1013.0
20260905181505 93 97 3.0 8.0 0.00 0.00 0.00 46 1013.1
20260905181305 93 88 3.0 12.0 0.00 0.00 0.00 46 1013.2
20260905181205 94 92 4.0 12.0 0.00 0.00 0.00 44 1013.2
20260905181105 95 94 4.0 12.0 0.00 0.00 0.00 44 1013.2
20260905180806 95 110 5.0 12.0 0.00 0.00 0.00 45 1013.3
20260905180705 95 115 4.0 12.0 0.00 0.00 0.00 45 1013.3
20260905180605 94 120 5.0 12.0 0.00 0.00 0.00 45 1013.3
20260905180505 94 119 5.0 12.0 0.00 0.00 0.00 45 1013.3
20260905180404 94 117 5.0 12.0 0.00 0.00 0.00 46 1013.4
20260905180305 94 118 5.0 11.0 0.00 0.00 0.00 45 1013.4
20260905180204 94 115 5.0 11.0 0.00 0.00 0.00 45 1013.4
20260905180105 94 114 5.0 11.0 0.00 0.00 0.00 45 1013.4
20260905180006 95 116 6.0 10.0 0.00 0.00 0.00 44 1013.4
20260905175905 95 119 6.0 11.0 0.00 0.00 0.00 44 1013.4
20260905175805 95 114 6.0 11.0 0.00 0.00 0.00 46 1013.4
20260905175705 95 114 6.0 11.0 0.00 0.00 0.00 45 1013.4
20260905175605 96 115 6.0 11.0 0.00 0.00 0.00 45 1013.4
20260905175505 96 121 6.0 11.0 0.00 0.00 0.00 45 1013.5
20260905175405 96 123 6.0 11.0 0.00 0.00 0.00 46 1013.6
20260905175306 96 121 5.0 11.0 0.00 0.00 0.00 46 1013.5
20260905175205 95 123 5.0 11.0 0.00 0.00 0.00 46 1013.5
20260905175105 95 127 5.0 11.0 0.00 0.00 0.00 46 1013.6
20260905175004 95 126 4.0 11.0 0.00 0.00 0.00 46 1013.6
20260905174905 95 121 5.0 11.0 0.00 0.00 0.00 46 1013.6
20260905174805 95 119 5.0 11.0 0.00 0.00 0.00 46 1013.6
20260905174705 95 121 5.0 11.0 0.00 0.00 0.00 45 1013.7
20260905174605 96 124 5.0 11.0 0.00 0.00 0.00 45 1013.6
20260905174505 95 120 5.0 11.0 0.00 0.00 0.00 46 1013.7
20260905174405 95 120 5.0 11.0 0.00 0.00 0.00 46 1013.6
20260905174305 94 122 6.0 11.0 0.00 0.00 0.00 45 1013.7
20260905174205 94 121 5.0 11.0 0.00 0.00 0.00 45 1013.7
20260905174105 94 119 6.0 11.0 0.00 0.00 0.00 45 1013.7
20260905174004 95 116 6.0 11.0 0.00 0.00 0.00 46 1013.7
20260905173905 95 116 5.0 11.0 0.00 0.00 0.00 46 1013.6
20260905173805 94 116 5.0 10.0 0.00 0.00 0.00 45 1013.7
20260905173705 95 116 5.0 10.0 0.00 0.00 0.00 45 1013.7
20260905173605 94 115 5.0 10.0 0.00 0.00 0.00 46 1013.7
20260905173505 94 117 4.0 10.0 0.00 0.00 0.00 47 1013.7
20260905173406 94 122 4.0 9.0 0.00 0.00 0.00 47 1013.7
20260905173204 94 136 4.0 9.0 0.00 0.00 0.00 46 1013.7
20260905173105 94 139 4.0 9.0 0.00 0.00 0.00 46 1013.6
20260905172805 94 133 4.0 10.0 0.00 0.00 0.00 47 1013.8
20260905172605 94 129 4.0 10.0 0.00 0.00 0.00 48 1013.8
20260905172505 94 127 4.0 10.0 0.00 0.00 0.00 48 1013.8
20260905172405 93 121 3.0 10.0 0.00 0.00 0.00 48 1013.8
20260905172305 93 112 4.0 10.0 0.00 0.00 0.00 48 1013.8
20260905172205 93 117 4.0 10.0 0.00 0.00 0.00 48 1013.8
20260905172105 93 126 4.0 10.0 0.00 0.00 0.00 48 1013.8
20260905172004 93 144 4.0 10.0 0.00 0.00 0.00 48 1013.8
20260905171905 93 161 4.0 10.0 0.00 0.00 0.00 48 1013.8
20260905171805 93 170 4.0 10.0 0.00 0.00 0.00 50 1013.8
20260905171705 92 177 4.0 10.0 0.00 0.00 0.00 49 1013.9
20260905171604 92 185 5.0 10.0 0.00 0.00 0.00 49 1013.9
20260905171506 93 188 6.0 12.0 0.00 0.00 0.00 49 1013.9
20260905171305 93 195 6.0 12.0 0.00 0.00 0.00 47 1014.0
20260905171105 94 190 5.0 12.0 0.00 0.00 0.00 47 1014.0
20260905171004 94 193 5.0 12.0 0.00 0.00 0.00 49 1014.1
20260905170905 94 195 5.0 12.0 0.00 0.00 0.00 49 1014.1
20260905170805 93 195 5.0 12.0 0.00 0.00 0.00 49 1014.0
20260905170605 93 195 4.0 12.0 0.00 0.00 0.00 49 1014.1
20260905170505 93 197 4.0 11.0 0.00 0.00 0.00 49 1014.1
20260905170305 93 193 3.0 10.0 0.00 0.00 0.00 50 1014.1
20260905170204 93 194 3.0 10.0 0.00 0.00 0.00 51 1014.1
20260905170005 93 199 4.0 10.0 0.00 0.00 0.00 50 1014.2
20260905165905 93 198 4.0 10.0 0.00 0.00 0.00 50 1014.2
20260905165806 93 193 4.0 10.0 0.00 0.00 0.00 51 1014.2
20260905165705 93 188 4.0 10.0 0.00 0.00 0.00 50 1014.2
20260905165605 93 184 4.0 10.0 0.00 0.00 0.00 51 1014.2
20260905165506 93 181 4.0 10.0 0.00 0.00 0.00 51 1014.2
20260905165306 92 172 4.0 10.0 0.00 0.00 0.00 51 1014.2
20260905165104 93 173 4.0 10.0 0.00 0.00 0.00 51 1014.3
20260905165005 93 170 4.0 10.0 0.00 0.00 0.00 51 1014.2
20260905164904 92 168 4.0 10.0 0.00 0.00 0.00 50 1014.2
20260905164604 92 182 4.0 11.0 0.00 0.00 0.00 50 1014.2
20260905164505 92 181 4.0 11.0 0.00 0.00 0.00 50 1014.3
20260905164405 93 182 4.0 11.0 0.00 0.00 0.00 50 1014.3
20260905164204 93 189 4.0 11.0 0.00 0.00 0.00 50 1014.3
20260905164105 93 189 4.0 11.0 0.00 0.00 0.00 49 1014.3
20260905163905 92 184 3.0 11.0 0.00 0.00 0.00 49 1014.2
20260905163705 92 156 2.0 9.0 0.00 0.00 0.00 52 1014.2
20260905163605 91 155 3.0 7.0 0.00 0.00 0.00 52 1014.2
20260905163505 91 155 3.0 7.0 0.00 0.00 0.00 52 1014.2
20260905163405 91 162 3.0 7.0 0.00 0.00 0.00 52 1014.2
20260905163305 91 159 4.0 10.0 0.00 0.00 0.00 52 1014.2
20260905163204 91 154 4.0 10.0 0.00 0.00 0.00 52 1014.2
20260905163105 91 153 4.0 10.0 0.00 0.00 0.00 52 1014.2
20260905163004 91 165 5.0 10.0 0.00 0.00 0.00 52 1014.3
20260905162804 92 175 5.0 10.0 0.00 0.00 0.00 52 1014.3
20260905162705 92 172 6.0 10.0 0.00 0.00 0.00 54 1014.3
20260905162604 92 172 6.0 10.0 0.00 0.00 0.00 53 1014.3
20260905162505 92 173 6.0 10.0 0.00 0.00 0.00 53 1014.4
20260905162404 92 171 6.0 10.0 0.00 0.00 0.00 53 1014.3
20260905162306 92 169 5.0 10.0 0.00 0.00 0.00 53 1014.3
20260905162105 92 173 5.0 10.0 0.00 0.00 0.00 53 1014.2
20260905162005 91 171 5.0 10.0 0.00 0.00 0.00 53 1014.2
20260905161905 91 167 5.0 10.0 0.00 0.00 0.00 53 1014.2
20260905161805 91 165 5.0 10.0 0.00 0.00 0.00 52 1014.2
20260905161705 91 168 5.0 10.0 0.00 0.00 0.00 54 1014.2
20260905161605 91 167 5.0 10.0 0.00 0.00 0.00 56 1014.2
20260905161405 91 164 5.0 10.0 0.00 0.00 0.00 56 1014.2
20260905161305 91 160 5.0 10.0 0.00 0.00 0.00 55 1014.2
20260905161106 91 154 5.0 10.0 0.00 0.00 0.00 55 1014.3
20260905160905 90 152 5.0 10.0 0.00 0.00 0.00 55 1014.2
20260905160806 91 156 6.0 10.0 0.00 0.00 0.00 55 1014.2
20260905160704 91 158 5.0 10.0 0.00 0.00 0.00 56 1014.3
20260905160605 91 162 5.0 10.0 0.00 0.00 0.00 56 1014.2
20260905160504 91 166 5.0 10.0 0.00 0.00 0.00 58 1014.2
20260905160305 90 177 5.0 10.0 0.00 0.00 0.00 58 1014.2
20260905160205 90 186 5.0 10.0 0.00 0.00 0.00 58 1014.3
20260905160105 90 191 5.0 10.0 0.00 0.00 0.00 58 1014.2
20260905160005 90 198 5.0 10.0 0.00 0.00 0.00 58 1014.3
20260905155905 90 197 4.0 10.0 0.00 0.00 0.00 57 1014.3
20260905155805 90 194 4.0 10.0 0.00 0.00 0.00 57 1014.2
20260905155705 90 197 4.0 9.0 0.00 0.00 0.00 57 1014.2
20260905155605 90 196 4.0 9.0 0.00 0.00 0.00 58 1014.2
20260905155505 90 193 4.0 9.0 0.00 0.00 0.00 59 1014.2
20260905155405 90 189 4.0 8.0 0.00 0.00 0.00 57 1014.2
20260905155306 90 184 4.0 9.0 0.00 0.00 0.00 60 1014.1
20260905155205 90 175 5.0 10.0 0.00 0.00 0.00 60 1014.1
20260905155104 90 168 5.0 10.0 0.00 0.00 0.00 60 1014.2
20260905155005 89 163 5.0 10.0 0.00 0.00 0.00 60 1014.2
20260905154905 89 162 5.0 10.0 0.00 0.00 0.00 60 1014.2
20260905154805 90 162 6.0 10.0 0.00 0.00 0.00 61 1014.2
20260905154705 89 161 6.0 10.0 0.00 0.00 0.00 62 1014.2
20260905154605 89 159 6.0 11.0 0.00 0.00 0.00 61 1014.2
20260905154505 89 160 6.0 11.0 0.00 0.00 0.00 61 1014.2
20260905154405 90 159 6.0 11.0 0.00 0.00 0.00 61 1014.3
20260905154305 90 160 6.0 11.0 0.00 0.00 0.00 61 1014.2
20260905154220 90 161 6.0 11.0 0.00 0.00 0.00 61 1014.3
20260905154105 89 165 5.0 11.0 0.00 0.00 0.00 61 1014.2
20260905154005 89 168 5.0 11.0 0.00 0.00 0.00 61 1014.2
20260905153905 89 169 5.0 11.0 0.00 0.00 0.00 62 1014.3
20260905153805 89 170 5.0 11.0 0.00 0.00 0.00 63 1014.3
20260905153705 89 175 5.0 11.0 0.00 0.00 0.00 63 1014.2
20260905153604 88 178 5.0 11.0 0.00 0.00 0.00 64 1014.2
20260905153505 88 182 5.0 11.0 0.00 0.00 0.00 64 1014.2
20260905153404 88 191 5.0 11.0 0.00 0.00 0.00 64 1014.2
20260905153306 88 192 5.0 11.0 0.00 0.00 0.00 64 1014.2
20260905153205 88 193 5.0 11.0 0.00 0.00 0.00 65 1014.2
20260905153105 88 192 5.0 11.0 0.00 0.00 0.00 65 1014.2
20260905153005 88 190 5.0 11.0 0.00 0.00 0.00 65 1014.2
20260905152905 88 186 5.0 11.0 0.00 0.00 0.00 65 1014.2
20260905152805 88 185 4.0 11.0 0.00 0.00 0.00 65 1014.2
20260905152704 88 183 4.0 10.0 0.00 0.00 0.00 65 1014.2
20260905152605 88 182 4.0 10.0 0.00 0.00 0.00 66 1014.1
20260905152505 88 177 4.0 10.0 0.00 0.00 0.00 66 1014.2
20260905152404 88 168 4.0 8.0 0.00 0.00 0.00 68 1014.2
20260905152306 88 169 4.0 9.0 0.00 0.00 0.00 68 1014.2
20260905152204 88 168 4.0 9.0 0.00 0.00 0.00 68 1014.3
20260905152105 87 170 5.0 9.0 0.00 0.00 0.00 68 1014.2
20260905152005 87 173 5.0 10.0 0.00 0.00 0.00 68 1014.2
20260905151704 87 181 5.0 10.0 0.00 0.00 0.00 68 1014.2
20260905151605 87 183 5.0 10.0 0.00 0.00 0.00 67 1014.1
20260905151404 87 182 5.0 10.0 0.00 0.00 0.00 69 1014.2
20260905151305 87 182 5.0 10.0 0.00 0.00 0.00 69 1014.2
20260905151204 86 179 5.0 10.0 0.00 0.00 0.00 69 1014.2
20260905151104 86 178 5.0 10.0 0.00 0.00 0.00 70 1014.2
20260905151005 86 178 5.0 9.0 0.00 0.00 0.00 70 1014.2
20260905150904 86 175 5.0 9.0 0.00 0.00 0.00 70 1014.2
20260905150805 86 178 5.0 9.0 0.00 0.00 0.00 69 1014.2
20260905150705 86 183 5.0 9.0 0.00 0.00 0.00 70 1014.2
20260905150604 86 186 5.0 9.0 0.00 0.00 0.00 69 1014.3
20260905150304 86 194 4.0 9.0 0.00 0.00 0.00 70 1014.3
20260905150205 86 197 5.0 11.0 0.00 0.00 0.00 70 1014.3
20260905150104 86 200 5.0 11.0 0.00 0.00 0.00 70 1014.3
20260905145904 86 202 5.0 11.0 0.00 0.00 0.00 70 1014.2
20260905145805 86 201 6.0 11.0 0.00 0.00 0.00 70 1014.2
20260905145704 85 196 6.0 12.0 0.00 0.00 0.00 70 1014.2
20260905145604 85 192 6.0 12.0 0.00 0.00 0.00 71 1014.2
20260905145505 85 190 6.0 12.0 0.00 0.00 0.00 71 1014.2
20260905145306 85 189 7.0 12.0 0.00 0.00 0.00 71 1014.2
20260905145205 85 189 6.0 12.0 0.00 0.00 0.00 71 1014.2
20260905145104 85 187 7.0 12.0 0.00 0.00 0.00 72 1014.2
20260905145005 85 186 7.0 12.0 0.00 0.00 0.00 72 1014.2
20260905144806 85 192 6.0 12.0 0.00 0.00 0.00 73 1014.2
20260905144704 85 196 6.0 11.0 0.00 0.00 0.00 73 1014.2
20260905144605 85 201 6.0 11.0 0.00 0.00 0.00 73 1014.2
20260905144504 84 205 6.0 11.0 0.00 0.00 0.00 73 1014.1
20260905144405 84 206 6.0 11.0 0.00 0.00 0.00 73 1014.2
20260905144305 84 204 6.0 11.0 0.00 0.00 0.00 73 1014.2
20260905144104 85 207 6.0 11.0 0.00 0.00 0.00 73 1014.2
20260905144005 85 212 6.0 11.0 0.00 0.00 0.00 72 1014.2
20260905143904 85 212 6.0 11.0 0.00 0.00 0.00 73 1014.2
20260905143804 85 209 6.0 11.0 0.00 0.00 0.00 73 1014.3
20260905143604 85 208 5.0 11.0 0.00 0.00 0.00 73 1014.2
20260905143405 84 205 5.0 10.0 0.00 0.00 0.00 75 1014.3
20260905143304 84 204 5.0 10.0 0.00 0.00 0.00 76 1014.2
20260905143205 84 203 5.0 10.0 0.00 0.00 0.00 76 1014.2
20260905143105 84 203 5.0 10.0 0.00 0.00 0.00 78 1014.3
20260905143004 84 198 4.0 10.0 0.00 0.00 0.00 78 1014.3
20260905142905 84 192 4.0 10.0 0.00 0.00 0.00 78 1014.3
20260905142805 84 188 4.0 7.0 0.00 0.00 0.00 78 1014.3
20260905142705 84 181 4.0 7.0 0.00 0.00 0.00 78 1014.2
20260905142605 84 177 4.0 7.0 0.00 0.00 0.00 78 1014.3
20260905142504 83 175 4.0 8.0 0.00 0.00 0.00 78 1014.3
20260905142306 83 178 4.0 8.0 0.00 0.00 0.00 78 1014.3
20260905142105 83 174 4.0 8.0 0.00 0.00 0.00 78 1014.3
20260905142005 83 175 3.0 8.0 0.00 0.00 0.00 79 1014.3
20260905141905 83 178 3.0 8.0 0.00 0.00 0.00 80 1014.2
20260905141805 82 181 3.0 8.0 0.00 0.00 0.00 79 1014.3
20260905141705 82 182 3.0 8.0 0.00 0.00 0.00 79 1014.2
20260905141604 82 179 3.0 8.0 0.00 0.00 0.00 79 1014.2
20260905141505 82 178 3.0 7.0 0.00 0.00 0.00 80 1014.3
20260905141405 82 173 3.0 7.0 0.00 0.00 0.00 80 1014.4
20260905141305 82 174 3.0 7.0 0.00 0.00 0.00 80 1014.3
20260905141205 82 175 3.0 7.0 0.00 0.00 0.00 80 1014.3
20260905141104 82 173 3.0 6.0 0.00 0.00 0.00 81 1014.4
20260905141005 82 167 3.0 6.0 0.00 0.00 0.00 80 1014.2
20260905140904 82 168 3.0 7.0 0.00 0.00 0.00 80 1014.3
20260905140806 82 167 3.0 7.0 0.00 0.00 0.00 81 1014.3
20260905140705 82 166 3.0 7.0 0.00 0.00 0.00 81 1014.3
20260905140605 82 168 3.0 7.0 0.00 0.00 0.00 81 1014.3
20260905140504 82 170 3.0 7.0 0.00 0.00 0.00 81 1014.2
20260905140304 82 172 3.0 7.0 0.00 0.00 0.00 82 1014.2
20260905140205 81 171 3.0 7.0 0.00 0.00 0.00 82 1014.2
20260905140104 81 173 3.0 7.0 0.00 0.00 0.00 82 1014.2
20260905140005 81 174 3.0 7.0 0.00 0.00 0.00 82 1014.3
20260905135904 81 176 2.0 5.0 0.00 0.00 0.00 82 1014.3
20260905135806 81 177 2.0 5.0 0.00 0.00 0.00 82 1014.3
20260905135705 81 178 3.0 6.0 0.00 0.00 0.00 82 1014.2
20260905135604 81 181 3.0 6.0 0.00 0.00 0.00 82 1014.2
20260905135405 81 175 2.0 6.0 0.00 0.00 0.00 82 1014.2
20260905135205 80 168 2.0 6.0 0.00 0.00 0.00 83 1014.1
20260905135104 80 165 2.0 6.0 0.00 0.00 0.00 83 1014.2
20260905135005 80 164 2.0 6.0 0.00 0.00 0.00 83 1014.2
20260905134904 80 158 3.0 6.0 0.00 0.00 0.00 84 1014.2
20260905134705 80 146 3.0 6.0 0.00 0.00 0.00 83 1014.2
20260905134605 80 136 3.0 5.0 0.00 0.00 0.00 84 1014.1
20260905134505 80 131 3.0 5.0 0.00 0.00 0.00 84 1014.1
20260905134404 80 129 2.0 5.0 0.00 0.00 0.00 84 1014.1
20260905134305 80 129 2.0 5.0 0.00 0.00 0.00 84 1014.1
20260905134204 79 130 2.0 5.0 0.00 0.00 0.00 84 1014.0
20260905134105 79 131 2.0 5.0 0.00 0.00 0.00 84 1014.1
20260905134005 79 130 2.0 5.0 0.00 0.00 0.00 84 1014.0
20260905133904 79 127 2.0 5.0 0.00 0.00 0.00 84 1014.0
20260905133805 79 127 2.0 5.0 0.00 0.00 0.00 84 1014.0
20260905133704 79 126 2.0 5.0 0.00 0.00 0.00 84 1014.0
20260905133605 79 128 2.0 4.0 0.00 0.00 0.00 84 1014.0
20260905133405 79 131 2.0 4.0 0.00 0.00 0.00 85 1014.0
20260905133304 79 132 2.0 4.0 0.00 0.00 0.00 85 1014.0
20260905133205 79 130 2.0 4.0 0.00 0.00 0.00 85 1014.0
20260905133104 79 128 2.0 4.0 0.00 0.00 0.00 85 1014.0
20260905133004 78 127 2.0 4.0 0.00 0.00 0.00 85 1014.0
20260905132905 78 128 2.0 4.0 0.00 0.00 0.00 85 1014.0
20260905132804 78 127 2.0 4.0 0.00 0.00 0.00 86 1014.0
20260905132705 78 128 1.0 4.0 0.00 0.00 0.00 85 1014.0
20260905132604 78 129 1.0 4.0 0.00 0.00 0.00 86 1013.9
20260905132505 78 129 1.0 4.0 0.00 0.00 0.00 85 1013.9
20260905132404 78 129 1.0 4.0 0.00 0.00 0.00 86 1014.0
20260905132306 78 125 0.0 4.0 0.00 0.00 0.00 86 1014.0
20260905132205 78 121 0.0 3.0 0.00 0.00 0.00 86 1013.9
20260905132006 77 0 0.0 0.0 0.00 0.00 0.00 86 1013.9
20260905131805 77 125 0.0 1.0 0.00 0.00 0.00 86 1013.9
20260905131704 77 125 0.0 1.0 0.00 0.00 0.00 86 1013.9
20260905131504 77 125 0.0 1.0 0.00 0.00 0.00 86 1013.9
20260905131304 77 125 0.0 1.0 0.00 0.00 0.00 86 1013.9
20260905131106 77 125 0.0 1.0 0.00 0.00 0.00 86 1013.9
20260905131005 77 125 0.0 1.0 0.00 0.00 0.00 86 1013.8
20260905130905 77 0 0.0 0.0 0.00 0.00 0.00 86 1013.8
20260905130805 77 0 0.0 0.0 0.00 0.00 0.00 87 1013.9
20260905130708 76 0 0.0 0.0 0.00 0.00 0.00 87 1013.8
20260905130604 76 0 0.0 0.0 0.00 0.00 0.00 87 1013.8
20260905130505 76 0 0.0 0.0 0.00 0.00 0.00 87 1013.8
20260905130404 76 0 0.0 0.0 0.00 0.00 0.00 87 1013.7
20260905130305 76 0 0.0 0.0 0.00 0.00 0.00 87 1013.8
20260905130205 76 0 0.0 0.0 0.00 0.00 0.00 87 1013.8
20260905130105 76 0 0.0 0.0 0.00 0.00 0.00 87 1013.7
20260905130004 76 0 0.0 0.0 0.00 0.00 0.00 87 1013.7
20260905125904 76 0 0.0 0.0 0.00 0.00 0.00 87 1013.7
20260905125804 76 0 0.0 0.0 0.00 0.00 0.00 88 1013.7
20260905125705 76 0 0.0 0.0 0.00 0.00 0.00 88 1013.7
20260905125604 76 0 0.0 0.0 0.00 0.00 0.00 88 1013.7
20260905125504 76 0 0.0 0.0 0.00 0.00 0.00 88 1013.6
20260905125405 75 0 0.0 0.0 0.00 0.00 0.00 88 1013.6
20260905125306 75 0 0.0 0.0 0.00 0.00 0.00 88 1013.6
20260905125204 75 0 0.0 0.0 0.00 0.00 0.00 88 1013.6
20260905125105 75 0 0.0 0.0 0.00 0.00 0.00 88 1013.5
20260905125004 75 0 0.0 0.0 0.00 0.00 0.00 88 1013.6
20260905124905 75 0 0.0 0.0 0.00 0.00 0.00 88 1013.5
20260905124804 75 0 0.0 0.0 0.00 0.00 0.00 88 1013.6
20260905124705 75 0 0.0 0.0 0.00 0.00 0.00 88 1013.5
20260905124604 75 0 0.0 0.0 0.00 0.00 0.00 89 1013.5
20260905124504 75 0 0.0 0.0 0.00 0.00 0.00 89 1013.5
20260905124404 74 0 0.0 0.0 0.00 0.00 0.00 89 1013.4
20260905124304 74 0 0.0 0.0 0.00 0.00 0.00 89 1013.4
20260905124104 74 0 0.0 0.0 0.00 0.00 0.00 89 1013.4
20260905123904 74 0 0.0 0.0 0.00 0.00 0.00 89 1013.4
20260905123805 74 0 0.0 0.0 0.00 0.00 0.00 89 1013.3
20260905123704 74 0 0.0 0.0 0.00 0.00 0.00 89 1013.3
20260905123604 74 0 0.0 0.0 0.00 0.00 0.00 89 1013.3
20260905123504 74 0 0.0 0.0 0.00 0.00 0.00 89 1013.4
20260905123405 74 0 0.0 0.0 0.00 0.00 0.00 89 1013.4
20260905123205 74 0 0.0 0.0 0.00 0.00 0.00 89 1013.4
20260905123104 74 0 0.0 0.0 0.00 0.00 0.00 89 1013.4
20260905123005 74 0 0.0 0.0 0.00 0.00 0.00 89 1013.4
20260905122805 74 0 0.0 0.0 0.00 0.00 0.00 89 1013.4
20260905122604 74 0 0.0 0.0 0.00 0.00 0.00 89 1013.4
20260905122505 74 0 0.0 0.0 0.00 0.00 0.00 89 1013.3
20260905122404 74 0 0.0 0.0 0.00 0.00 0.00 89 1013.3
20260905122307 74 0 0.0 0.0 0.00 0.00 0.00 89 1013.3
20260905122204 74 0 0.0 0.0 0.00 0.00 0.00 89 1013.3
20260905122104 74 0 0.0 0.0 0.00 0.00 0.00 89 1013.3
20260905122005 74 0 0.0 0.0 0.00 0.00 0.00 89 1013.4
20260905121905 74 0 0.0 0.0 0.00 0.00 0.00 89 1013.4
20260905121804 74 0 0.0 0.0 0.00 0.00 0.00 89 1013.4
20260905121705 74 0 0.0 0.0 0.00 0.00 0.00 89 1013.4
20260905121504 74 0 0.0 0.0 0.00 0.00 0.00 88 1013.4
20260905121405 74 0 0.0 0.0 0.00 0.00 0.00 88 1013.3
20260905121205 74 0 0.0 0.0 0.00 0.00 0.00 88 1013.4
20260905121104 74 0 0.0 0.0 0.00 0.00 0.00 88 1013.3
20260905121004 74 0 0.0 0.0 0.00 0.00 0.00 88 1013.3
20260905120904 74 0 0.0 0.0 0.00 0.00 0.00 88 1013.3
20260905120804 74 0 0.0 0.0 0.00 0.00 0.00 88 1013.3
20260905120704 74 0 0.0 0.0 0.00 0.00 0.00 88 1013.3
20260905120604 74 0 0.0 0.0 0.00 0.00 0.00 88 1013.3
20260905120505 74 0 0.0 0.0 0.00 0.00 0.00 88 1013.3
20260905120405 74 0 0.0 0.0 0.00 0.00 0.00 88 1013.2
20260905120304 74 0 0.0 0.0 0.00 0.00 0.00 88 1013.2
20260905120204 74 0 0.0 0.0 0.00 0.00 0.00 88 1013.2
20260905120105 74 0 0.0 0.0 0.00 0.00 0.00 88 1013.2
20260905115904 74 0 0.0 0.0 0.00 0.00 0.00 88 1013.2
20260905115704 74 0 0.0 0.0 0.00 0.01 0.00 88 1013.1
20260905115605 74 0 0.0 0.0 0.00 0.01 0.00 88 1013.2
20260905115504 74 0 0.0 0.0 0.00 0.01 0.00 88 1013.2
20260905115405 74 0 0.0 0.0 0.00 0.01 0.00 88 1013.2
20260905115306 74 0 0.0 0.0 0.00 0.01 0.00 88 1013.1
20260905115204 74 0 0.0 0.0 0.00 0.01 0.00 88 1013.1
20260905115104 74 0 0.0 0.0 0.00 0.01 0.00 88 1013.1
20260905115004 74 0 0.0 0.0 0.00 0.01 0.00 88 1013.1
20260905114905 74 0 0.0 0.0 0.00 0.01 0.00 88 1013.0
20260905114804 74 0 0.0 0.0 0.00 0.01 0.00 88 1013.1
20260905114705 74 0 0.0 0.0 0.00 0.01 0.00 88 1013.0
20260905114604 74 0 0.0 0.0 0.00 0.01 0.00 88 1013.0
20260905114504 74 0 0.0 0.0 0.00 0.01 0.00 88 1012.9
20260905114404 74 0 0.0 0.0 0.00 0.01 0.00 88 1012.9
20260905114304 74 0 0.0 0.0 0.00 0.01 0.00 88 1012.9
20260905114204 74 0 0.0 0.0 0.00 0.01 0.00 88 1012.9
20260905114104 74 0 0.0 0.0 0.00 0.01 0.00 88 1012.8
20260905113904 74 0 0.0 0.0 0.00 0.01 0.00 88 1012.8
20260905113804 74 0 0.0 0.0 0.00 0.01 0.00 88 1012.8
20260905113704 74 0 0.0 0.0 0.00 0.01 0.00 88 1012.9
20260905113604 74 0 0.0 0.0 0.00 0.01 0.00 88 1012.9
20260905113505 74 0 0.0 0.0 0.00 0.01 0.00 88 1012.8
20260905113404 74 0 0.0 0.0 0.00 0.01 0.00 88 1012.8
20260905113204 74 0 0.0 0.0 0.00 0.01 0.00 88 1012.8
20260905113105 74 0 0.0 0.0 0.00 0.01 0.00 88 1012.8
20260905113004 74 0 0.0 0.0 0.00 0.01 0.00 88 1012.8
20260905112905 74 0 0.0 0.0 0.00 0.01 0.00 88 1012.8
20260905112804 74 0 0.0 0.0 0.00 0.01 0.00 88 1012.8
20260905112705 75 0 0.0 0.0 0.00 0.01 0.00 88 1012.7
20260905112604 75 210 0.0 1.0 0.00 0.01 0.00 88 1012.7
20260905112505 74 210 0.0 2.0 0.00 0.01 0.00 88 1012.7
20260905112404 75 210 0.0 2.0 0.00 0.01 0.00 88 1012.7
20260905112306 75 210 0.0 2.0 0.00 0.01 0.00 88 1012.6
20260905112204 75 210 0.0 2.0 0.00 0.01 0.00 88 1012.6
20260905111905 75 210 0.0 2.0 0.00 0.01 0.00 88 1012.6
20260905111804 75 210 0.0 2.0 0.00 0.01 0.00 88 1012.6
20260905111704 75 210 0.0 2.0 0.00 0.01 0.00 88 1012.6
20260905111604 75 210 0.0 2.0 0.00 0.01 0.00 88 1012.6
20260905111504 75 210 0.0 2.0 0.00 0.01 0.00 88 1012.6
20260905111405 75 210 0.0 2.0 0.00 0.01 0.00 88 1012.6
20260905111305 75 210 0.0 2.0 0.00 0.01 0.00 88 1012.6
20260905111204 75 0 0.0 0.0 0.00 0.01 0.00 88 1012.6
20260905111104 75 0 0.0 0.0 0.00 0.01 0.00 88 1012.6
20260905110904 75 0 0.0 0.0 0.00 0.01 0.00 87 1012.6
20260905110604 75 0 0.0 0.0 0.00 0.01 0.00 87 1012.6
20260905110505 75 0 0.0 0.0 0.00 0.01 0.00 88 1012.5
20260905110406 75 0 0.0 0.0 0.00 0.01 0.00 87 1012.6
20260905110305 75 0 0.0 0.0 0.00 0.01 0.00 87 1012.6
20260905110204 75 0 0.0 0.0 0.00 0.01 0.00 87 1012.6
20260905110105 75 0 0.0 0.0 0.00 0.01 0.00 87 1012.6
20260905105905 75 0 0.0 0.0 0.00 0.01 0.00 87 1012.5
20260905105804 75 0 0.0 0.0 0.00 0.01 0.00 87 1012.5
20260905105705 75 0 0.0 0.0 0.00 0.01 0.00 87 1012.5
20260905105604 76 0 0.0 0.0 0.00 0.01 0.00 87 1012.5
20260905105505 76 0 0.0 0.0 0.00 0.01 0.00 87 1012.6
20260905105404 76 0 0.0 0.0 0.00 0.01 0.00 87 1012.6
20260905105104 76 0 0.0 0.0 0.00 0.01 0.00 87 1012.6
20260905105006 76 209 0.0 2.0 0.00 0.01 0.00 87 1012.6
20260905104904 76 210 0.0 2.0 0.00 0.01 0.00 87 1012.6
20260905104805 76 210 0.0 2.0 0.00 0.01 0.00 86 1012.6
20260905104604 76 210 1.0 2.0 0.00 0.01 0.00 87 1012.6
20260905104504 76 209 1.0 4.0 0.00 0.01 0.00 87 1012.6
20260905104404 76 205 1.0 4.0 0.00 0.01 0.00 87 1012.6
20260905104104 76 204 1.0 4.0 0.00 0.01 0.00 86 1012.5
20260905104004 76 203 1.0 4.0 0.00 0.01 0.00 87 1012.6
20260905103904 76 203 1.0 4.0 0.00 0.01 0.00 87 1012.5
20260905103704 76 202 1.0 4.0 0.00 0.01 0.00 87 1012.6
20260905103604 76 202 1.0 4.0 0.00 0.01 0.00 87 1012.6
20260905103504 76 200 1.0 4.0 0.00 0.01 0.00 87 1012.6
20260905103404 76 202 1.0 4.0 0.00 0.01 0.00 87 1012.6
20260905103205 76 201 1.0 3.0 0.00 0.01 0.00 86 1012.6
20260905103105 76 199 1.0 3.0 0.00 0.01 0.00 86 1012.6
20260905103004 76 197 1.0 3.0 0.00 0.01 0.00 86 1012.6
20260905102905 76 198 1.0 3.0 0.00 0.01 0.00 86 1012.6
20260905102704 76 202 1.0 3.0 0.00 0.01 0.00 86 1012.6
20260905102603 76 203 1.0 3.0 0.00 0.01 0.00 86 1012.6
20260905102504 76 204 1.0 3.0 0.00 0.01 0.00 86 1012.6
20260905102306 76 207 1.0 2.0 0.00 0.01 0.00 86 1012.7
20260905102204 76 209 1.0 3.0 0.00 0.01 0.00 86 1012.7
20260905102105 76 209 1.0 3.0 0.00 0.01 0.00 86 1012.7
20260905102004 76 210 1.0 4.0 0.00 0.01 0.00 87 1012.7
20260905101804 76 211 1.0 4.0 0.00 0.01 0.00 87 1012.7
20260905101604 76 210 1.0 4.0 0.00 0.01 0.00 87 1012.7
20260905101504 76 210 1.0 4.0 0.00 0.01 0.00 87 1012.7
20260905101404 76 209 1.0 4.0 0.00 0.01 0.00 87 1012.7
20260905101305 76 207 0.0 4.0 0.00 0.01 0.00 87 1012.7
20260905101204 76 205 0.0 4.0 0.00 0.01 0.00 87 1012.7
20260905101104 76 209 0.0 4.0 0.00 0.01 0.00 87 1012.7
20260905101004 76 0 0.0 0.0 0.00 0.01 0.00 87 1012.6
20260905100905 75 0 0.0 0.0 0.00 0.01 0.00 87 1012.6
20260905100804 75 0 0.0 0.0 0.00 0.01 0.00 86 1012.6
20260905100705 75 0 0.0 0.0 0.00 0.01 0.00 86 1012.7
20260905100506 75 0 0.0 0.0 0.00 0.01 0.00 86 1012.6
20260905100404 75 0 0.0 0.0 0.00 0.01 0.00 86 1012.6
20260905100304 75 0 0.0 0.0 0.00 0.01 0.00 86 1012.6
20260905100204 75 0 0.0 0.0 0.00 0.01 0.00 86 1012.7
20260905100105 75 0 0.0 0.0 0.00 0.01 0.00 86 1012.7
20260905100004 75 0 0.0 0.0 0.00 0.01 0.00 86 1012.7
20260905095804 75 0 0.0 0.0 0.00 0.01 0.00 86 1012.7
20260905095704 75 0 0.0 0.0 0.00 0.01 0.00 86 1012.7
20260905095603 75 0 0.0 0.0 0.00 0.01 0.00 86 1012.7
20260905095504 75 0 0.0 0.0 0.00 0.01 0.00 86 1012.7
20260905095404 75 0 0.0 0.0 0.00 0.01 0.00 86 1012.7
20260905095306 75 0 0.0 0.0 0.00 0.01 0.00 86 1012.7
20260905095204 75 0 0.0 0.0 0.00 0.01 0.00 86 1012.7
20260905095105 75 0 0.0 0.0 0.00 0.01 0.00 85 1012.7
20260905095004 75 0 0.0 0.0 0.00 0.01 0.00 85 1012.8
20260905094804 75 0 0.0 0.0 0.00 0.01 0.00 85 1012.7
20260905094704 75 0 0.0 0.0 0.00 0.01 0.00 85 1012.7
20260905094604 75 0 0.0 0.0 0.00 0.01 0.00 85 1012.7
20260905094404 76 0 0.0 0.0 0.00 0.01 0.00 85 1012.7
20260905094305 76 0 0.0 0.0 0.00 0.01 0.00 85 1012.7
20260905094204 76 0 0.0 0.0 0.00 0.01 0.00 85 1012.7
20260905094104 76 0 0.0 0.0 0.00 0.01 0.00 85 1012.7
20260905094005 76 0 0.0 0.0 0.00 0.01 0.00 85 1012.7
20260905093803 76 0 0.0 0.0 0.00 0.01 0.00 84 1012.6
20260905093604 76 0 0.0 0.0 0.00 0.01 0.00 84 1012.6
20260905093504 76 0 0.0 0.0 0.00 0.01 0.00 84 1012.6
20260905093404 76 0 0.0 0.0 0.00 0.01 0.00 84 1012.6
20260905093304 76 0 0.0 0.0 0.00 0.01 0.00 84 1012.6
20260905093204 76 210 2.0 5.0 0.00 0.01 0.00 84 1012.6
20260905093105 76 210 2.0 5.0 0.00 0.01 0.00 84 1012.6
20260905093004 76 210 2.0 5.0 0.00 0.01 0.00 84 1012.6
20260905092804 76 210 2.0 5.0 0.00 0.01 0.00 84 1012.7
20260905092705 76 210 2.0 5.0 0.00 0.01 0.00 84 1012.7
20260905092604 76 210 2.0 5.0 0.00 0.01 0.00 84 1012.7
20260905092504 77 210 2.0 5.0 0.00 0.01 0.00 84 1012.6
20260905092404 77 210 2.0 5.0 0.00 0.01 0.00 84 1012.7
20260905092004 77 210 2.0 5.0 0.00 0.01 0.00 84 1012.6
20260905091905 77 210 2.0 5.0 0.00 0.01 0.00 84 1012.6
20260905091604 77 210 2.0 5.0 0.00 0.01 0.00 84 1012.6
20260905091504 77 210 2.0 5.0 0.00 0.01 0.00 84 1012.6
20260905091304 77 210 2.0 5.0 0.00 0.01 0.00 84 1012.7
20260905091204 77 210 2.0 5.0 0.00 0.01 0.00 84 1012.7
20260905091105 77 210 2.0 5.0 0.00 0.01 0.00 84 1012.7
20260905091004 77 210 2.0 5.0 0.00 0.01 0.00 83 1012.7
20260905090905 77 210 2.0 5.0 0.00 0.01 0.00 83 1012.7
20260905090804 77 210 2.0 5.0 0.00 0.01 0.00 83 1012.7
20260905090604 77 210 2.0 5.0 0.00 0.01 0.00 83 1012.7
20260905090505 77 210 2.0 5.0 0.00 0.01 0.00 83 1012.7
20260905090404 77 209 2.0 5.0 0.00 0.01 0.00 83 1012.7
20260905090304 77 207 2.0 5.0 0.00 0.01 0.00 83 1012.7
20260905090204 77 206 2.0 5.0 0.00 0.01 0.00 83 1012.7
20260905090105 77 204 2.0 5.0 0.00 0.01 0.00 83 1012.8
20260905085905 77 202 1.0 5.0 0.00 0.01 0.00 83 1012.8
20260905085804 77 201 1.0 5.0 0.00 0.01 0.00 83 1012.7
20260905085704 77 202 1.0 3.0 0.00 0.01 0.00 83 1012.7
20260905085604 77 201 1.0 3.0 0.00 0.01 0.00 83 1012.7
20260905085504 77 203 1.0 4.0 0.00 0.01 0.00 83 1012.8
20260905085204 77 202 2.0 4.0 0.00 0.01 0.00 83 1012.8
20260905085104 77 203 2.0 4.0 0.00 0.01 0.00 83 1012.8
20260905085005 77 203 2.0 4.0 0.00 0.01 0.00 83 1012.7
20260905084904 77 204 2.0 4.0 0.00 0.01 0.00 83 1012.8
20260905084804 77 202 2.0 4.0 0.00 0.01 0.00 83 1012.8
20260905084704 77 202 2.0 4.0 0.00 0.01 0.00 83 1012.7
20260905084605 77 202 2.0 4.0 0.00 0.01 0.00 83 1012.6
20260905084505 77 200 2.0 4.0 0.00 0.01 0.00 83 1012.7
20260905084404 77 200 2.0 4.0 0.00 0.01 0.00 82 1012.6
20260905084304 77 199 2.0 4.0 0.00 0.01 0.00 82 1012.6
20260905084204 77 198 2.0 4.0 0.00 0.01 0.00 82 1012.6
20260905084003 77 197 2.0 5.0 0.00 0.01 0.00 82 1012.7
20260905083904 77 197 2.0 5.0 0.00 0.01 0.00 82 1012.6
20260905083804 77 197 2.0 5.0 0.00 0.01 0.00 82 1012.7
20260905083704 77 197 2.0 5.0 0.00 0.01 0.00 82 1012.6
20260905083604 77 197 2.0 6.0 0.00 0.01 0.00 82 1012.7
20260905083504 77 198 2.0 6.0 0.00 0.01 0.00 82 1012.6
20260905083404 77 199 2.0 6.0 0.00 0.01 0.00 82 1012.6
20260905083304 77 200 2.0 6.0 0.00 0.01 0.00 82 1012.6
20260905083204 77 200 2.0 6.0 0.00 0.01 0.00 82 1012.6
20260905083104 77 200 1.0 6.0 0.00 0.01 0.00 82 1012.6
20260905082904 77 200 1.0 6.0 0.00 0.01 0.00 82 1012.6
20260905082804 77 201 1.0 6.0 0.00 0.01 0.00 82 1012.6
20260905082704 77 200 0.0 6.0 0.00 0.01 0.00 82 1012.6
20260905082603 77 203 0.0 5.0 0.00 0.01 0.00 82 1012.6
20260905082504 77 205 0.0 5.0 0.00 0.01 0.00 82 1012.6
20260905082307 77 0 0.0 0.0 0.00 0.01 0.00 82 1012.6
20260905082204 77 0 0.0 0.0 0.00 0.01 0.00 82 1012.7
20260905082004 77 0 0.0 0.0 0.00 0.01 0.00 82 1012.7
20260905081904 77 0 0.0 0.0 0.00 0.01 0.00 82 1012.6
20260905081804 77 0 0.0 0.0 0.00 0.01 0.00 82 1012.6
20260905081604 77 0 0.0 0.0 0.00 0.01 0.00 82 1012.6
20260905081504 77 0 0.0 0.0 0.00 0.01 0.00 82 1012.7
20260905081404 77 0 0.0 0.0 0.00 0.01 0.00 82 1012.7
20260905081305 77 0 0.0 0.0 0.00 0.01 0.00 82 1012.7
20260905081204 77 0 0.0 0.0 0.00 0.01 0.00 82 1012.7
20260905081104 77 0 0.0 0.0 0.00 0.01 0.00 82 1012.7
20260905081005 77 0 0.0 0.0 0.00 0.01 0.00 82 1012.7
20260905080904 77 0 0.0 0.0 0.00 0.01 0.00 81 1012.7
20260905080803 77 0 0.0 0.0 0.00 0.01 0.00 81 1012.7
20260905080604 77 0 0.0 0.0 0.00 0.01 0.00 81 1012.7
20260905080504 77 0 0.0 0.0 0.00 0.01 0.00 81 1012.7
20260905080304 77 0 0.0 0.0 0.00 0.01 0.00 81 1012.7
20260905080104 78 0 0.0 0.0 0.00 0.01 0.00 80 1012.7
20260905080004 78 0 0.0 0.0 0.00 0.01 0.00 80 1012.8
20260905075904 78 0 0.0 0.0 0.00 0.01 0.00 80 1012.8
20260905075804 78 0 0.0 0.0 0.00 0.01 0.00 80 1012.7
20260905075604 78 0 0.0 0.0 0.00 0.01 0.00 80 1012.8
20260905075504 78 0 0.0 0.0 0.00 0.01 0.00 80 1012.8
20260905075404 78 0 0.0 0.0 0.00 0.01 0.00 80 1012.8
20260905075306 78 0 0.0 0.0 0.00 0.01 0.00 80 1012.8
20260905075104 78 0 0.0 0.0 0.00 0.01 0.00 80 1012.8
20260905074904 78 0 0.0 0.0 0.00 0.01 0.00 80 1012.8
20260905074804 78 0 0.0 0.0 0.00 0.01 0.00 80 1012.7
20260905074704 78 0 0.0 0.0 0.00 0.01 0.00 80 1012.7
20260905074603 78 0 0.0 0.0 0.00 0.01 0.00 80 1012.7
20260905074504 78 0 0.0 0.0 0.00 0.01 0.00 80 1012.7
20260905074403 78 0 0.0 0.0 0.00 0.01 0.00 80 1012.7
20260905074304 78 0 0.0 0.0 0.00 0.01 0.00 80 1012.8
20260905074203 78 0 0.0 0.0 0.00 0.01 0.00 80 1012.8
20260905074104 78 0 0.0 0.0 0.00 0.01 0.00 80 1012.8
20260905074006 78 0 0.0 0.0 0.00 0.01 0.00 80 1012.8
20260905073904 78 0 0.0 0.0 0.00 0.01 0.00 80 1012.8
20260905073705 78 0 0.0 0.0 0.00 0.01 0.00 79 1012.8
20260905073605 78 0 0.0 0.0 0.00 0.01 0.00 79 1012.8
20260905073504 78 0 0.0 0.0 0.00 0.01 0.00 79 1012.8
20260905073404 78 0 0.0 0.0 0.00 0.01 0.00 79 1012.8
20260905073304 78 0 0.0 0.0 0.00 0.01 0.00 79 1012.8
20260905073206 78 0 0.0 0.0 0.00 0.01 0.00 79 1012.8
20260905073105 78 0 0.0 0.0 0.00 0.01 0.00 79 1012.8
20260905072904 78 0 0.0 0.0 0.00 0.01 0.00 79 1012.8
20260905072805 78 0 0.0 0.0 0.00 0.01 0.00 79 1012.7
20260905072704 78 0 0.0 0.0 0.00 0.01 0.00 79 1012.7
20260905072404 78 0 0.0 0.0 0.00 0.01 0.00 79 1012.7
20260905072204 78 0 0.0 0.0 0.00 0.01 0.00 79 1012.8
20260905072104 78 0 0.0 0.0 0.00 0.01 0.00 79 1012.8
20260905072005 78 0 0.0 0.0 0.00 0.01 0.00 79 1012.8
20260905071904 78 0 0.0 0.0 0.00 0.01 0.00 79 1012.8
20260905071804 78 0 0.0 0.0 0.00 0.01 0.00 79 1012.9
20260905071704 78 0 0.0 0.0 0.00 0.01 0.00 79 1012.9
20260905071603 78 0 0.0 0.0 0.00 0.01 0.00 79 1012.9
20260905071404 78 184 0.0 1.0 0.00 0.01 0.00 79 1012.9
20260905071305 78 195 0.0 2.0 0.00 0.01 0.00 79 1012.9
20260905071105 78 207 0.0 4.0 0.00 0.01 0.00 79 1012.9
20260905071004 78 208 1.0 4.0 0.00 0.01 0.00 79 1012.9
20260905070904 78 208 1.0 4.0 0.00 0.01 0.00 79 1012.9
20260905070804 78 208 1.0 4.0 0.00 0.01 0.00 79 1012.9
20260905070704 78 208 1.0 4.0 0.00 0.01 0.00 78 1012.9
20260905070604 78 208 1.0 4.0 0.00 0.01 0.00 78 1013.0
20260905070504 78 208 1.0 4.0 0.00 0.01 0.00 78 1013.0
20260905070404 78 209 1.0 4.0 0.00 0.01 0.00 78 1013.0
20260905070304 78 210 1.0 4.0 0.00 0.01 0.00 78 1012.9
20260905070204 78 204 1.0 4.0 0.00 0.01 0.00 78 1013.0
20260905070104 78 202 1.0 4.0 0.00 0.01 0.00 78 1013.0
20260905070005 79 195 1.0 4.0 0.00 0.01 0.00 78 1012.9
20260905065904 79 194 1.0 4.0 0.00 0.01 0.00 78 1012.9
20260905065804 79 194 1.0 4.0 0.00 0.01 0.00 78 1012.9
20260905065704 79 192 2.0 7.0 0.00 0.01 0.00 78 1012.9
20260905065605 79 192 2.0 7.0 0.00 0.01 0.00 78 1012.9
20260905065504 79 190 2.0 7.0 0.00 0.01 0.00 78 1013.0
20260905065404 79 189 3.0 7.0 0.00 0.01 0.00 78 1013.0
20260905065306 79 187 3.0 7.0 0.00 0.01 0.00 78 1013.0
20260905065204 79 186 3.0 7.0 0.00 0.01 0.00 77 1013.0
20260905065104 79 184 3.0 7.0 0.00 0.01 0.00 77 1013.0
20260905065004 79 184 3.0 7.0 0.00 0.01 0.00 77 1013.0
20260905064904 79 183 3.0 7.0 0.00 0.01 0.00 77 1013.0
20260905064804 79 183 3.0 7.0 0.00 0.01 0.00 77 1013.0
20260905064705 79 182 3.0 6.0 0.00 0.01 0.00 77 1013.0
20260905064404 79 179 3.0 7.0 0.00 0.01 0.00 77 1013.0
20260905064304 79 178 3.0 7.0 0.00 0.01 0.00 77 1013.0
20260905064204 79 177 3.0 7.0 0.00 0.01 0.00 77 1013.0
20260905064104 79 175 3.0 8.0 0.00 0.01 0.00 77 1013.0
20260905064005 79 174 3.0 8.0 0.00 0.01 0.00 77 1013.0
20260905063904 79 172 3.0 8.0 0.00 0.01 0.00 77 1013.1
20260905063804 79 171 4.0 8.0 0.00 0.01 0.00 77 1013.0
20260905063704 79 169 4.0 8.0 0.00 0.01 0.00 77 1013.1
20260905063504 79 167 4.0 8.0 0.00 0.01 0.00 77 1013.1
20260905063405 79 167 4.0 8.0 0.00 0.01 0.00 77 1013.0
20260905063304 79 168 4.0 8.0 0.00 0.01 0.00 77 1013.1
20260905063204 79 169 4.0 8.0 0.00 0.01 0.00 77 1013.0
20260905063103 79 171 4.0 8.0 0.00 0.01 0.00 77 1013.0
20260905063004 79 170 4.0 8.0 0.00 0.01 0.00 77 1013.0
20260905062903 79 172 4.0 8.0 0.00 0.01 0.00 77 1013.0
20260905062804 79 173 4.0 10.0 0.00 0.01 0.00 77 1013.1
20260905062704 79 173 4.0 10.0 0.00 0.01 0.00 77 1013.1
20260905062504 79 175 5.0 10.0 0.00 0.01 0.00 77 1013.1
20260905062404 79 176 5.0 10.0 0.00 0.01 0.00 77 1013.1
20260905062305 79 175 5.0 10.0 0.00 0.01 0.00 77 1013.2
20260905062004 79 174 5.0 10.0 0.00 0.01 0.00 77 1013.2
20260905061904 79 173 5.0 10.0 0.00 0.01 0.00 77 1013.2
20260905061803 79 173 5.0 9.0 0.00 0.01 0.00 77 1013.1
20260905061704 79 174 5.0 9.0 0.00 0.01 0.00 77 1013.1
20260905061604 79 174 5.0 8.0 0.00 0.01 0.00 77 1013.1
20260905061504 79 174 5.0 8.0 0.00 0.01 0.00 77 1013.1
20260905061403 79 172 5.0 8.0 0.00 0.01 0.00 77 1013.1
20260905061304 79 174 5.0 8.0 0.00 0.01 0.00 77 1013.2
20260905061204 79 173 5.0 8.0 0.00 0.01 0.00 77 1013.1
20260905061104 79 174 5.0 8.0 0.00 0.01 0.00 77 1013.1
20260905061004 79 173 5.0 8.0 0.00 0.01 0.00 77 1013.1
20260905060804 79 174 4.0 8.0 0.00 0.01 0.00 77 1013.1
20260905060705 79 174 4.0 8.0 0.00 0.01 0.00 77 1013.1
20260905060604 80 174 4.0 8.0 0.00 0.01 0.00 77 1013.2
20260905060504 80 175 4.0 8.0 0.00 0.01 0.00 77 1013.1
20260905060304 80 179 4.0 8.0 0.00 0.01 0.00 77 1013.1
20260905060204 80 182 4.0 8.0 0.00 0.01 0.00 77 1013.2
20260905060103 80 184 4.0 8.0 0.00 0.01 0.00 77 1013.2
20260905060004 80 185 4.0 8.0 0.00 0.01 0.00 77 1013.2
20260905055903 80 186 4.0 8.0 0.00 0.01 0.00 77 1013.2
20260905055603 80 188 4.0 8.0 0.00 0.01 0.00 77 1013.2
20260905055504 80 187 4.0 7.0 0.00 0.01 0.00 77 1013.2
20260905055404 80 186 4.0 7.0 0.00 0.01 0.00 77 1013.2
20260905055306 80 186 4.0 7.0 0.00 0.01 0.00 77 1013.2
20260905055204 80 185 4.0 7.0 0.00 0.01 0.00 77 1013.2
20260905055103 80 185 4.0 7.0 0.00 0.01 0.00 77 1013.2
20260905054904 80 183 4.0 7.0 0.00 0.01 0.00 77 1013.2
20260905054804 80 182 4.0 8.0 0.00 0.01 0.00 77 1013.2
20260905054704 80 178 4.0 9.0 0.00 0.01 0.00 77 1013.2
20260905054604 80 177 4.0 9.0 0.00 0.01 0.00 77 1013.2
20260905054505 80 176 4.0 9.0 0.00 0.01 0.00 77 1013.2
20260905054404 80 176 4.0 9.0 0.00 0.01 0.00 77 1013.2
20260905054304 80 175 4.0 9.0 0.00 0.01 0.00 77 1013.2
20260905054204 80 174 4.0 9.0 0.00 0.01 0.00 77 1013.2
20260905054105 80 173 5.0 9.0 0.00 0.01 0.00 77 1013.2
20260905054004 80 172 5.0 9.0 0.00 0.01 0.00 77 1013.2
20260905053904 80 172 5.0 9.0 0.00 0.01 0.00 77 1013.2
20260905053804 80 171 5.0 9.0 0.00 0.01 0.00 77 1013.1
20260905053704 80 170 5.0 9.0 0.00 0.01 0.00 77 1013.2
20260905053504 80 169 5.0 9.0 0.00 0.01 0.00 77 1013.2
20260905053404 80 168 5.0 9.0 0.00 0.01 0.00 77 1013.2
20260905053303 80 168 4.0 9.0 0.00 0.01 0.00 77 1013.1
20260905053204 80 167 4.0 9.0 0.00 0.01 0.00 77 1013.1
20260905053104 80 167 4.0 8.0 0.00 0.01 0.00 77 1013.1
20260905053004 80 168 4.0 8.0 0.00 0.01 0.00 77 1013.1
20260905052903 80 169 4.0 8.0 0.00 0.01 0.00 77 1013.1
20260905052703 80 169 4.0 8.0 0.00 0.01 0.00 77 1013.1
20260905052604 80 168 4.0 8.0 0.00 0.01 0.00 77 1013.1
20260905052504 80 168 4.0 8.0 0.00 0.01 0.00 77 1013.1
20260905052404 80 168 4.0 8.0 0.00 0.01 0.00 77 1013.1
20260905052204 80 166 4.0 8.0 0.00 0.01 0.00 77 1013.1
20260905052104 80 165 4.0 7.0 0.00 0.01 0.00 77 1013.2
20260905052004 80 163 3.0 7.0 0.00 0.01 0.00 77 1013.2
20260905051904 80 160 3.0 7.0 0.00 0.01 0.00 77 1013.3
20260905051703 80 158 3.0 7.0 0.00 0.01 0.00 77 1013.2
20260905051604 80 157 3.0 7.0 0.00 0.01 0.00 77 1013.3
20260905051504 80 157 3.0 7.0 0.00 0.01 0.00 77 1013.2
20260905051404 80 156 3.0 7.0 0.00 0.01 0.00 77 1013.3
20260905051304 80 154 3.0 7.0 0.00 0.01 0.00 77 1013.3
20260905051204 80 153 3.0 7.0 0.00 0.01 0.00 77 1013.3
20260905051004 80 152 3.0 7.0 0.00 0.01 0.00 77 1013.3
20260905050904 80 153 3.0 7.0 0.00 0.01 0.00 77 1013.3
20260905050704 80 154 3.0 7.0 0.00 0.01 0.00 77 1013.3
20260905050604 80 155 3.0 7.0 0.00 0.01 0.00 77 1013.2
20260905050503 80 155 3.0 7.0 0.00 0.01 0.00 77 1013.3
20260905050303 80 157 3.0 7.0 0.00 0.01 0.00 77 1013.3
20260905050204 80 157 3.0 7.0 0.00 0.01 0.00 77 1013.3
20260905050104 80 158 3.0 7.0 0.00 0.01 0.00 77 1013.2
20260905050005 80 157 4.0 7.0 0.00 0.01 0.00 77 1013.2
20260905045805 80 158 3.0 7.0 0.00 0.01 0.01 77 1013.2
20260905045704 80 157 3.0 7.0 0.00 0.01 0.01 77 1013.3
20260905045604 80 157 4.0 7.0 0.00 0.01 0.01 77 1013.3
20260905045504 80 158 3.0 7.0 0.00 0.01 0.01 77 1013.3
20260905045404 80 157 3.0 7.0 0.00 0.01 0.01 77 1013.3
20260905045305 80 156 3.0 7.0 0.00 0.01 0.01 77 1013.3
20260905045205 80 156 3.0 7.0 0.00 0.01 0.01 77 1013.3
20260905045103 80 156 3.0 7.0 0.00 0.01 0.01 77 1013.3
20260905045004 80 156 3.0 7.0 0.00 0.01 0.01 77 1013.3
20260905044903 80 156 2.0 7.0 0.00 0.01 0.01 77 1013.3
20260905044604 80 153 2.0 7.0 0.00 0.01 0.01 77 1013.3
20260905044504 80 152 2.0 7.0 0.00 0.01 0.01 77 1013.3
20260905044304 80 152 2.0 7.0 0.00 0.01 0.01 77 1013.4
20260905044104 80 147 2.0 4.0 0.00 0.01 0.01 77 1013.4
20260905044004 80 147 2.0 4.0 0.00 0.01 0.01 77 1013.4
20260905043903 80 145 2.0 4.0 0.00 0.01 0.01 77 1013.3
20260905043805 80 143 1.0 4.0 0.00 0.01 0.01 77 1013.3
20260905043704 80 143 1.0 4.0 0.00 0.01 0.01 77 1013.4
20260905043503 80 139 1.0 4.0 0.00 0.01 0.01 77 1013.4
20260905043404 80 136 1.0 4.0 0.00 0.01 0.01 77 1013.4
20260905043303 80 132 1.0 4.0 0.00 0.01 0.01 77 1013.4
20260905043204 80 130 1.0 4.0 0.00 0.01 0.01 77 1013.4
20260905043004 80 128 1.0 4.0 0.00 0.01 0.01 77 1013.3
20260905042904 80 128 1.0 4.0 0.00 0.01 0.01 77 1013.3
20260905042805 80 130 2.0 4.0 0.00 0.01 0.01 76 1013.2
20260905042703 80 130 2.0 4.0 0.00 0.01 0.01 76 1013.2
20260905042604 80 129 2.0 4.0 0.00 0.01 0.01 76 1013.2
20260905042503 80 129 2.0 4.0 0.00 0.01 0.01 76 1013.2
20260905042404 80 130 2.0 4.0 0.00 0.01 0.01 76 1013.2
20260905042306 80 131 2.0 4.0 0.00 0.01 0.01 76 1013.2
20260905042204 80 131 2.0 4.0 0.00 0.01 0.01 76 1013.2
20260905042104 81 131 2.0 4.0 0.00 0.01 0.01 76 1013.2
20260905041903 81 128 2.0 4.0 0.00 0.01 0.01 76 1013.2
20260905041804 81 126 2.0 4.0 0.00 0.01 0.01 76 1013.2
20260905041704 81 124 2.0 4.0 0.00 0.01 0.01 76 1013.2
20260905041604 81 125 2.0 4.0 0.00 0.01 0.01 76 1013.2
20260905041503 81 124 2.0 4.0 0.00 0.01 0.01 76 1013.2
20260905041404 81 123 2.0 4.0 0.00 0.01 0.01 76 1013.3
20260905041303 81 122 2.0 4.0 0.00 0.01 0.01 76 1013.2
20260905041204 81 123 2.0 4.0 0.00 0.01 0.01 76 1013.2
20260905041004 81 125 2.0 4.0 0.00 0.01 0.01 76 1013.3
20260905040904 81 127 2.0 3.0 0.00 0.01 0.01 76 1013.3
20260905040504 81 134 1.0 3.0 0.00 0.01 0.01 75 1013.3
20260905040403 81 137 1.0 3.0 0.00 0.01 0.01 75 1013.2
20260905040304 81 140 1.0 3.0 0.00 0.01 0.01 75 1013.2
20260905040204 81 142 1.0 3.0 0.00 0.01 0.01 75 1013.3
20260905040104 81 144 1.0 3.0 0.00 0.01 0.01 75 1013.3
20260905035904 81 142 1.0 3.0 0.00 0.01 0.01 75 1013.2
20260905035804 81 141 1.0 3.0 0.00 0.01 0.01 75 1013.2
20260905035703 81 142 1.0 3.0 0.00 0.01 0.01 75 1013.2
20260905035604 81 139 1.0 4.0 0.00 0.01 0.01 75 1013.2
20260905035503 81 141 2.0 4.0 0.00 0.01 0.01 75 1013.2
20260905035404 81 141 2.0 6.0 0.00 0.01 0.01 74 1013.2
20260905035306 82 141 2.0 6.0 0.00 0.01 0.01 74 1013.2
20260905035204 82 139 2.0 6.0 0.00 0.01 0.01 74 1013.2
20260905035104 82 138 2.0 6.0 0.00 0.01 0.01 74 1013.2
20260905035004 82 138 2.0 6.0 0.00 0.01 0.01 74 1013.3
20260905034903 82 138 3.0 6.0 0.00 0.01 0.01 74 1013.2
20260905034804 82 138 3.0 6.0 0.00 0.01 0.01 74 1013.2
20260905034703 82 138 3.0 6.0 0.00 0.01 0.01 74 1013.2
20260905034604 82 139 3.0 6.0 0.00 0.01 0.01 74 1013.2
20260905034504 82 139 3.0 6.0 0.00 0.01 0.01 74 1013.2
20260905034404 82 141 3.0 6.0 0.00 0.01 0.01 74 1013.2
20260905034303 82 143 3.0 7.0 0.00 0.01 0.01 74 1013.2
20260905034204 82 144 3.0 7.0 0.00 0.01 0.01 74 1013.3
20260905034104 82 145 3.0 7.0 0.00 0.01 0.01 74 1013.2
20260905034004 82 145 3.0 7.0 0.00 0.01 0.01 74 1013.2
20260905033904 82 145 3.0 7.0 0.00 0.01 0.01 73 1013.2
20260905033803 82 145 3.0 7.0 0.00 0.01 0.01 73 1013.2
20260905033704 82 145 3.0 7.0 0.00 0.01 0.01 73 1013.2
20260905033603 82 145 3.0 7.0 0.00 0.01 0.01 73 1013.2
20260905033504 82 144 3.0 7.0 0.00 0.01 0.01 73 1013.1
20260905033204 82 139 2.0 7.0 0.00 0.01 0.01 73 1013.1
20260905033104 82 137 2.0 7.0 0.00 0.01 0.01 73 1013.1
20260905032904 82 136 2.0 6.0 0.00 0.01 0.01 73 1013.2
20260905032804 82 136 2.0 6.0 0.00 0.01 0.01 73 1013.1
20260905032704 82 133 2.0 7.0 0.00 0.01 0.01 73 1013.2
20260905032604 82 134 2.0 7.0 0.00 0.01 0.01 73 1013.1
20260905032503 82 135 3.0 7.0 0.00 0.01 0.01 73 1013.1
20260905032204 82 135 3.0 7.0 0.00 0.01 0.01 73 1013.1
20260905032105 82 134 3.0 7.0 0.00 0.01 0.01 73 1013.1
20260905032003 82 134 4.0 7.0 0.00 0.01 0.01 73 1013.1
20260905031904 82 133 4.0 7.0 0.00 0.01 0.01 73 1013.1
20260905031803 82 133 4.0 8.0 0.00 0.01 0.01 73 1013.1
20260905031704 82 132 4.0 8.0 0.00 0.01 0.01 73 1013.0
20260905031603 82 133 4.0 8.0 0.00 0.01 0.01 73 1013.0
20260905031504 82 133 4.0 8.0 0.00 0.01 0.01 73 1013.0
20260905031403 82 132 4.0 8.0 0.00 0.01 0.01 72 1012.9
20260905031203 82 131 3.0 8.0 0.00 0.01 0.01 72 1013.0
20260905031104 82 132 4.0 8.0 0.00 0.01 0.01 72 1013.0
20260905031003 82 132 4.0 8.0 0.00 0.01 0.01 72 1013.1
20260905030804 82 132 4.0 8.0 0.00 0.01 0.01 72 1013.1
20260905030704 82 130 4.0 8.0 0.00 0.01 0.01 72 1013.1
20260905030603 82 130 4.0 7.0 0.00 0.01 0.01 72 1013.1
20260905030504 82 130 4.0 7.0 0.00 0.01 0.01 72 1013.1
20260905030403 82 129 4.0 7.0 0.00 0.01 0.01 72 1013.1
20260905030304 82 129 4.0 7.0 0.00 0.01 0.01 72 1013.1
20260905030004 83 130 4.0 7.0 0.00 0.01 0.01 71 1013.1
20260905025903 83 130 4.0 7.0 0.00 0.01 0.01 71 1013.1
20260905025804 83 130 4.0 8.0 0.00 0.01 0.01 71 1013.1
20260905025703 83 131 4.0 8.0 0.00 0.01 0.01 71 1013.1
20260905025604 83 129 4.0 8.0 0.00 0.01 0.01 71 1013.1
20260905025504 83 128 4.0 8.0 0.00 0.01 0.01 71 1013.1
20260905025404 83 127 4.0 8.0 0.00 0.01 0.01 71 1013.0
20260905025306 83 126 4.0 8.0 0.00 0.01 0.01 71 1013.1
20260905025103 83 125 4.0 8.0 0.00 0.01 0.01 70 1013.0
20260905025004 83 125 4.0 8.0 0.00 0.01 0.01 70 1013.0
20260905024903 83 123 4.0 8.0 0.00 0.01 0.01 70 1013.0
20260905024704 83 122 4.0 9.0 0.00 0.01 0.01 69 1013.0
20260905024603 83 122 4.0 9.0 0.00 0.01 0.01 69 1012.9
20260905024504 83 122 5.0 9.0 0.00 0.01 0.01 69 1012.9
20260905024403 83 123 4.0 9.0 0.00 0.01 0.01 69 1013.0
20260905024304 83 123 4.0 9.0 0.00 0.01 0.01 69 1012.9
20260905024104 83 123 4.0 9.0 0.00 0.01 0.01 69 1012.9
20260905024003 83 123 4.0 9.0 0.00 0.01 0.01 69 1012.9
20260905023904 83 124 4.0 9.0 0.00 0.01 0.01 69 1012.8
20260905023803 83 124 4.0 8.0 0.00 0.01 0.01 68 1012.8
20260905023704 83 124 4.0 8.0 0.00 0.01 0.01 68 1012.8
20260905023603 83 124 4.0 8.0 0.00 0.01 0.01 68 1012.8
20260905023504 83 125 4.0 8.0 0.00 0.01 0.01 68 1012.8
20260905023403 83 125 4.0 8.0 0.00 0.01 0.01 68 1012.8
20260905023304 83 125 3.0 8.0 0.00 0.01 0.01 68 1012.8
20260905023205 83 124 3.0 8.0 0.00 0.01 0.01 68 1012.7
20260905023106 83 124 3.0 8.0 0.00 0.01 0.01 68 1012.7
20260905023005 83 125 3.0 8.0 0.00 0.01 0.01 68 1012.7
20260905022906 83 125 3.0 7.0 0.00 0.01 0.01 68 1012.7
20260905022805 83 124 3.0 7.0 0.00 0.01 0.01 67 1012.7
20260905022706 83 125 3.0 7.0 0.00 0.01 0.01 67 1012.6
20260905022506 83 126 2.0 5.0 0.00 0.01 0.01 67 1012.6
20260905022405 83 126 2.0 4.0 0.00 0.01 0.01 67 1012.6
20260905022206 83 127 3.0 4.0 0.00 0.01 0.01 67 1012.6
20260905022105 83 127 3.0 4.0 0.00 0.01 0.01 67 1012.6
20260905022006 83 127 2.0 4.0 0.00 0.01 0.01 67 1012.5
20260905021905 84 127 2.0 4.0 0.00 0.01 0.01 67 1012.5
20260905021806 84 130 3.0 4.0 0.00 0.01 0.01 66 1012.5
20260905021705 84 131 3.0 7.0 0.00 0.01 0.01 66 1012.5
20260905021606 84 130 2.0 7.0 0.00 0.01 0.01 66 1012.5
20260905021505 84 130 2.0 7.0 0.00 0.01 0.01 66 1012.4
20260905021406 84 130 2.0 7.0 0.00 0.01 0.01 66 1012.4
20260905021305 84 132 2.0 7.0 0.00 0.01 0.01 66 1012.5
20260905021206 84 131 2.0 7.0 0.00 0.01 0.01 66 1012.4
20260905021106 84 132 2.0 7.0 0.00 0.01 0.01 66 1012.4
20260905021006 84 133 2.0 7.0 0.00 0.01 0.01 66 1012.5
20260905020905 84 134 2.0 7.0 0.00 0.01 0.01 66 1012.4
20260905020806 84 131 2.0 7.0 0.00 0.01 0.01 66 1012.4
20260905020705 84 131 2.0 4.0 0.00 0.01 0.01 66 1012.4
20260905020606 84 131 2.0 4.0 0.00 0.01 0.01 66 1012.4
20260905020505 84 131 2.0 4.0 0.00 0.01 0.01 66 1012.4
20260905020205 84 134 2.0 4.0 0.00 0.01 0.01 65 1012.3
20260905020106 84 134 2.0 4.0 0.00 0.01 0.01 65 1012.3
20260905015906 84 133 2.0 5.0 0.00 0.01 0.01 65 1012.2
20260905015806 84 133 2.0 5.0 0.00 0.01 0.01 65 1012.1
20260905015705 84 132 2.0 5.0 0.00 0.01 0.01 65 1012.1
20260905015605 84 132 3.0 6.0 0.00 0.01 0.01 65 1012.2
20260905015506 84 134 3.0 6.0 0.00 0.01 0.01 65 1012.2
20260905015406 84 133 3.0 6.0 0.00 0.01 0.01 65 1012.2
20260905015307 84 133 3.0 6.0 0.00 0.01 0.01 65 1012.1
20260905015206 84 132 3.0 6.0 0.00 0.01 0.01 65 1012.1
20260905015106 84 132 3.0 6.0 0.00 0.01 0.01 65 1012.1
20260905015005 84 131 3.0 6.0 0.00 0.01 0.01 65 1012.1
20260905014905 85 132 3.0 6.0 0.00 0.01 0.01 65 1012.2
20260905014806 85 134 3.0 6.0 0.00 0.01 0.01 64 1012.1
20260905014705 85 134 3.0 6.0 0.00 0.01 0.01 64 1012.2
20260905014505 85 133 3.0 9.0 0.00 0.01 0.01 64 1012.1
20260905014406 85 133 4.0 9.0 0.00 0.01 0.01 64 1012.1
20260905014306 85 133 4.0 9.0 0.00 0.01 0.01 64 1012.1
20260905014205 85 132 4.0 9.0 0.00 0.01 0.01 64 1012.1
20260905014005 85 133 4.0 9.0 0.00 0.01 0.01 64 1012.0
20260905013906 85 132 4.0 9.0 0.00 0.01 0.01 64 1012.0
20260905013805 85 132 4.0 9.0 0.00 0.01 0.01 64 1012.0
20260905013706 85 132 4.0 9.0 0.00 0.01 0.01 64 1012.0
20260905013605 85 133 4.0 9.0 0.00 0.01 0.01 64 1012.0
20260905013506 85 132 4.0 9.0 0.00 0.01 0.01 64 1012.0
20260905013405 85 132 4.0 9.0 0.00 0.01 0.01 64 1012.0
20260905013306 85 132 4.0 9.0 0.00 0.01 0.01 63 1012.0
20260905013106 85 131 4.0 9.0 0.00 0.01 0.01 63 1012.0
20260905012906 85 131 4.0 9.0 0.00 0.01 0.01 63 1012.0
20260905012806 85 131 5.0 9.0 0.00 0.01 0.01 63 1011.9
20260905012605 85 131 5.0 9.0 0.00 0.01 0.01 62 1011.9
20260905012406 86 134 5.0 9.0 0.00 0.01 0.01 62 1011.9
20260905012306 86 136 5.0 9.0 0.00 0.01 0.01 62 1011.9
20260905012206 86 135 5.0 9.0 0.00 0.01 0.01 62 1011.9
20260905012105 86 136 5.0 9.0 0.00 0.01 0.01 62 1011.8
20260905011805 86 139 5.0 9.0 0.00 0.01 0.01 62 1011.8
20260905011605 86 139 4.0 9.0 0.00 0.01 0.01 62 1011.7
20260905011307 86 138 4.0 9.0 0.00 0.01 0.01 62 1011.7
20260905011205 86 140 4.0 8.0 0.00 0.01 0.01 62 1011.7
20260905011005 86 143 4.0 8.0 0.00 0.01 0.01 62 1011.8
20260905010906 86 144 4.0 8.0 0.00 0.01 0.01 62 1011.8
20260905010805 86 145 4.0 9.0 0.00 0.01 0.01 62 1011.8
20260905010706 86 147 4.0 9.0 0.00 0.01 0.01 62 1011.8
20260905010605 86 145 5.0 12.0 0.00 0.01 0.01 62 1011.8
20260905010506 86 146 5.0 12.0 0.00 0.01 0.01 62 1011.9
20260905010405 86 146 5.0 12.0 0.00 0.01 0.01 61 1011.7
20260905010306 86 145 5.0 12.0 0.00 0.01 0.01 61 1011.7
20260905010206 86 144 5.0 12.0 0.00 0.01 0.01 60 1011.7
20260905010105 86 143 6.0 12.0 0.00 0.01 0.01 60 1011.7
20260905010006 86 145 6.0 15.0 0.00 0.01 0.01 60 1011.7
20260905005905 86 143 6.0 15.0 0.00 0.01 0.01 60 1011.7
20260905005807 86 141 6.0 15.0 0.00 0.01 0.01 60 1011.7
20260905005705 86 140 6.0 15.0 0.00 0.01 0.01 60 1011.6
20260905005606 86 142 6.0 15.0 0.00 0.01 0.01 60 1011.6
20260905005406 86 140 6.0 15.0 0.00 0.01 0.01 60 1011.6
20260905005307 86 140 6.0 15.0 0.00 0.01 0.01 60 1011.6
20260905005106 87 141 6.0 15.0 0.00 0.01 0.01 60 1011.6
20260905005005 87 140 6.0 12.0 0.00 0.01 0.01 60 1011.6
20260905004906 87 142 6.0 12.0 0.00 0.01 0.01 60 1011.6
20260905004805 87 143 6.0 12.0 0.00 0.01 0.01 60 1011.6
20260905004706 87 145 6.0 12.0 0.00 0.01 0.01 60 1011.6
20260905004506 87 146 6.0 12.0 0.00 0.01 0.01 60 1011.6
20260905004405 87 147 7.0 12.0 0.00 0.01 0.01 60 1011.5
20260905004306 87 149 7.0 12.0 0.00 0.01 0.01 60 1011.5
20260905004205 87 150 7.0 12.0 0.00 0.01 0.01 60 1011.6
20260905004106 87 149 7.0 12.0 0.00 0.01 0.01 60 1011.5
20260905004005 87 149 7.0 13.0 0.00 0.01 0.01 60 1011.5
20260905003906 87 149 8.0 13.0 0.00 0.01 0.01 59 1011.5
20260905003805 87 149 8.0 15.0 0.00 0.01 0.01 59 1011.5
20260905003605 88 149 8.0 15.0 0.00 0.01 0.01 59 1011.5
20260905003506 88 148 8.0 15.0 0.00 0.01 0.01 59 1011.5
20260905003405 88 149 8.0 15.0 0.00 0.01 0.01 59 1011.6
20260905003205 88 147 8.0 15.0 0.00 0.01 0.01 59 1011.6
20260905003107 88 146 8.0 15.0 0.00 0.01 0.01 59 1011.6
20260905003005 88 145 7.0 15.0 0.00 0.01 0.01 59 1011.6
20260905002905 88 143 7.0 15.0 0.00 0.01 0.01 58 1011.5
20260905002805 88 142 7.0 15.0 0.00 0.01 0.01 58 1011.5
20260905002705 88 143 8.0 15.0 0.00 0.01 0.01 58 1011.5
20260905002505 88 141 8.0 17.0 0.00 0.01 0.01 58 1011.5
20260905002406 88 140 9.0 17.0 0.00 0.01 0.01 58 1011.4
20260905002306 88 139 9.0 19.0 0.00 0.01 0.01 58 1011.4
20260905002206 88 136 9.0 19.0 0.00 0.01 0.01 58 1011.4
20260905002105 88 138 9.0 19.0 0.00 0.01 0.01 57 1011.3
20260905002006 88 137 9.0 19.0 0.00 0.01 0.01 57 1011.3
20260905001905 88 137 10.0 19.0 0.00 0.01 0.01 57 1011.3
20260905001806 89 137 10.0 19.0 0.00 0.01 0.01 57 1011.3
20260905001706 89 136 10.0 19.0 0.00 0.01 0.01 57 1011.3
20260905001606 89 133 10.0 19.0 0.00 0.01 0.01 57 1011.3
20260905001505 89 133 10.0 19.0 0.00 0.01 0.01 55 1011.2
20260905001405 89 132 10.0 19.0 0.00 0.01 0.01 55 1011.3
20260905001306 89 132 11.0 19.0 0.00 0.01 0.01 55 1011.2
20260905001206 89 130 11.0 19.0 0.00 0.01 0.01 55 1011.2
20260905001105 89 127 11.0 19.0 0.00 0.01 0.01 55 1011.2
20260905001006 89 127 12.0 19.0 0.00 0.01 0.01 55 1011.2
20260905000905 90 126 11.0 19.0 0.00 0.01 0.01 55 1011.2
20260905000805 90 125 11.0 19.0 0.00 0.01 0.01 54 1011.2
20260905000706 90 125 11.0 19.0 0.00 0.01 0.01 54 1011.2
20260905000406 90 123 12.0 19.0 0.00 0.01 0.01 52 1011.1
20260905000305 90 121 11.0 19.0 0.00 0.01 0.01 51 1011.1
20260905000206 90 120 11.0 19.0 0.00 0.01 0.01 49 1011.1
20260905000105 90 120 11.0 19.0 0.00 0.01 0.01 49 1011.1
20260904235905 91 118 11.0 18.0 0.00 0.01 0.01 48 1011.0
20260904235805 91 115 10.0 18.0 0.00 0.01 0.01 48 1011.0
20260904235706 91 113 10.0 17.0 0.00 0.01 0.01 48 1011.0
20260904235605 91 114 10.0 17.0 0.00 0.01 0.01 48 1011.0
20260904235506 91 116 9.0 17.0 0.00 0.01 0.01 48 1011.0
20260904235406 91 120 9.0 17.0 0.00 0.01 0.01 48 1010.9
20260904235306 91 127 9.0 17.0 0.00 0.01 0.01 48 1010.9
20260904235206 92 130 9.0 17.0 0.00 0.01 0.01 48 1010.9
20260904235106 92 132 9.0 17.0 0.00 0.01 0.01 48 1010.9
20260904235005 92 133 9.0 17.0 0.00 0.01 0.01 48 1010.8
20260904234906 92 135 9.0 17.0 0.00 0.01 0.01 47 1010.8
20260904234805 92 139 9.0 16.0 0.00 0.01 0.01 47 1010.8
20260904234605 92 139 8.0 16.0 0.00 0.01 0.01 47 1010.8
20260904234405 93 134 7.0 16.0 0.00 0.01 0.01 47 1010.8
20260904234305 93 133 7.0 16.0 0.00 0.01 0.01 47 1010.9
20260904234205 93 133 8.0 16.0 0.00 0.01 0.01 47 1010.9
20260904234106 93 136 8.0 16.0 0.00 0.01 0.01 47 1010.8
20260904234005 93 138 7.0 16.0 0.00 0.01 0.01 46 1010.8
20260904233905 93 141 7.0 15.0 0.00 0.01 0.01 46 1010.8
20260904233806 93 145 7.0 15.0 0.00 0.01 0.01 47 1010.9
20260904233705 93 146 7.0 15.0 0.00 0.01 0.01 47 1010.8
20260904233606 93 149 7.0 15.0 0.00 0.01 0.01 47 1010.8
20260904233505 93 153 8.0 15.0 0.00 0.01 0.01 47 1010.8
20260904233405 93 154 8.0 15.0 0.00 0.01 0.01 47 1010.8
20260904233305 93 153 8.0 15.0 0.00 0.01 0.01 47 1010.8
20260904233105 93 147 8.0 15.0 0.00 0.01 0.01 47 1010.8
20260904233006 93 145 8.0 15.0 0.00 0.01 0.01 47 1010.8
20260904232905 93 143 8.0 15.0 0.00 0.01 0.01 47 1010.8
20260904232805 92 140 8.0 15.0 0.00 0.01 0.01 47 1010.8
20260904232706 92 139 8.0 15.0 0.00 0.01 0.01 47 1010.8
20260904232606 92 138 8.0 15.0 0.00 0.01 0.01 47 1010.8
20260904232405 92 132 8.0 15.0 0.00 0.01 0.01 46 1010.8
20260904232307 92 133 7.0 15.0 0.00 0.01 0.01 46 1010.8
20260904232205 93 133 7.0 14.0 0.00 0.01 0.01 46 1010.8
20260904232105 93 133 7.0 14.0 0.00 0.01 0.01 46 1010.8
20260904232005 93 134 7.0 14.0 0.00 0.01 0.01 46 1010.8
20260904231806 93 134 7.0 14.0 0.00 0.01 0.01 45 1010.8
20260904231705 93 134 8.0 14.0 0.00 0.01 0.01 45 1010.8
20260904231506 93 134 7.0 14.0 0.00 0.01 0.01 44 1010.8
20260904231405 94 132 7.0 14.0 0.00 0.01 0.01 44 1010.8
20260904231205 94 130 7.0 14.0 0.00 0.01 0.01 44 1010.8
20260904231107 94 129 8.0 14.0 0.00 0.01 0.01 44 1010.8
20260904231006 94 128 8.0 16.0 0.00 0.01 0.01 44 1010.8
20260904230905 94 128 8.0 16.0 0.00 0.01 0.01 44 1010.9
20260904230806 94 127 8.0 16.0 0.00 0.01 0.01 44 1010.9
20260904230705 94 123 8.0 16.0 0.00 0.01 0.01 43 1010.8